M I D A S
Marine Information and Data Acquisition System
Tripno 1447 of the Zeeleeuw from 2008-03-28 07:28:51 to 2008-03-28 13:09:42
Back to CruiseResearch ActivitiesStationsMapUnderway DataData graphs

EquipmentUnitsComment
TimeDGPSUTC
LatitudeDGPSDM.mWGS84
LongitudeDGPSDM.mWGS84
TemperatureSBE03/SBE38deg celciusITS90
ConductivitySBE21S/mITS90
SalinitySBE21 Practical Salinity Units
ChlorophylAChelsea fluorimeterg/lCalibrated in Aceton
Missing or incorrect values are displayed as -999
Sea surface data collected by the RV Zeeleeuw from 2008-03-28 06:49:31 to 2008-03-28 13:15:27
                                                                                    Next 1000 lines
Time Latitude Longitude Temperature Conductivity Salinity ChlorophylA
2008-03-28 06:49:41 51°13.666 2°55.954 13.9173 0.148107 0.835189 -1.731873
2008-03-28 06:49:46 51°13.666 2°55.954 13.9174 0.148107 0.835189 -1.766697
2008-03-28 06:49:50 51°13.666 2°55.955 13.9175 0.148107 0.835189 -1.766697
2008-03-28 06:49:56 51°13.666 2°55.955 13.9177 0.148107 0.835189 -1.766697
2008-03-28 06:50:01 51°13.666 2°55.955 13.9179 0.148107 0.835189 -1.766697
2008-03-28 06:50:06 51°13.665 2°55.955 13.918 0.148107 0.835189 -1.731873
2008-03-28 06:50:11 51°13.665 2°55.955 13.9182 0.148107 0.835189 -1.766697
2008-03-28 06:50:17 51°13.665 2°55.955 13.9185 0.148107 0.835189 -1.731873
2008-03-28 06:50:22 51°13.665 2°55.955 13.9184 0.148107 0.835189 -1.731873
2008-03-28 06:50:27 51°13.666 2°55.955 13.9191 0.148107 0.835189 -1.766697
2008-03-28 06:50:31 51°13.666 2°55.955 13.9192 0.148107 0.835189 -1.731873
2008-03-28 06:50:36 51°13.666 2°55.955 13.9194 0.148107 0.835189 -1.731873
2008-03-28 06:50:42 51°13.666 2°55.955 13.9197 0.148107 0.835189 -1.731873
2008-03-28 06:50:47 51°13.666 2°55.956 13.9198 0.148107 0.835174 -1.766697
2008-03-28 06:50:51 51°13.666 2°55.956 13.9201 0.148107 0.835174 -1.766697
2008-03-28 06:50:57 51°13.666 2°55.955 13.9204 0.148107 0.835174 -1.766697
2008-03-28 06:51:01 51°13.666 2°55.955 13.9206 0.148107 0.835174 -1.766697
2008-03-28 06:51:07 51°13.665 2°55.955 13.9207 0.148107 0.835174 -1.766697
2008-03-28 06:51:11 51°13.665 2°55.955 13.9211 0.148107 0.835174 -1.731873
2008-03-28 06:51:17 51°13.665 2°55.955 13.9211 0.148107 0.835174 -1.766697
2008-03-28 06:51:21 51°13.665 2°55.955 13.9214 0.148107 0.835174 -1.766697
2008-03-28 06:51:26 51°13.665 2°55.955 13.9216 0.148107 0.835189 -1.731873
2008-03-28 06:51:31 51°13.665 2°55.955 13.9218 0.148107 0.835174 -1.766697
2008-03-28 06:51:36 51°13.665 2°55.955 13.922 0.148107 0.835174 -1.766697
2008-03-28 06:51:41 51°13.665 2°55.955 13.9224 0.148107 0.835174 -1.766697
2008-03-28 06:51:46 51°13.665 2°55.955 13.9227 0.148107 0.835174 -1.731873
2008-03-28 06:51:51 51°13.665 2°55.955 13.9229 0.148107 0.835174 -1.731873
2008-03-28 06:51:57 51°13.665 2°55.954 13.9233 0.148107 0.835174 -1.766697
2008-03-28 06:52:01 51°13.665 2°55.954 13.9236 0.148107 0.835174 -1.731873
2008-03-28 06:52:06 51°13.665 2°55.954 13.9236 0.148107 0.835174 -1.766697
2008-03-28 06:52:12 51°13.665 2°55.954 13.9239 0.148107 0.835174 -1.731873
2008-03-28 06:52:16 51°13.665 2°55.954 13.9241 0.148107 0.835174 -1.731873
2008-03-28 06:52:21 51°13.665 2°55.954 13.9243 0.148107 0.835174 -1.731873
2008-03-28 06:52:26 51°13.665 2°55.954 13.9248 0.148107 0.835174 -1.766697
2008-03-28 06:52:31 51°13.665 2°55.954 13.9248 0.148107 0.835174 -1.766697
2008-03-28 06:52:37 51°13.665 2°55.954 13.925 0.148107 0.835174 -1.766697
2008-03-28 06:52:42 51°13.665 2°55.954 13.9253 0.148107 0.835174 -1.731873
2008-03-28 06:52:46 51°13.665 2°55.954 13.9255 0.148107 0.835174 -1.731873
2008-03-28 06:52:52 51°13.665 2°55.954 13.9258 0.148107 0.835174 -1.731873
2008-03-28 06:52:57 51°13.666 2°55.954 13.9261 0.148107 0.835174 -1.731873
2008-03-28 06:53:01 51°13.666 2°55.955 13.9263 0.148107 0.835174 -1.766697
2008-03-28 06:53:06 51°13.665 2°55.954 13.9265 0.148107 0.835159 -1.766697
2008-03-28 06:53:11 51°13.665 2°55.954 13.9268 0.148107 0.835159 -1.731873
2008-03-28 06:53:16 51°13.665 2°55.954 13.9272 0.148107 0.835159 -1.766697
2008-03-28 06:53:21 51°13.665 2°55.954 13.9271 0.148107 0.835159 -1.766697
2008-03-28 06:53:26 51°13.665 2°55.954 13.9276 0.148107 0.835159 -1.766697
2008-03-28 06:53:32 51°13.665 2°55.954 13.9278 0.148107 0.835159 -1.731873
2008-03-28 06:53:36 51°13.665 2°55.954 13.928 0.148107 0.835159 -1.731873
2008-03-28 06:53:41 51°13.665 2°55.954 13.9281 0.148107 0.835159 -1.731873
2008-03-28 06:53:46 51°13.665 2°55.954 13.9282 0.148107 0.835159 -1.766697
2008-03-28 06:53:51 51°13.665 2°55.954 13.9288 0.148107 0.835159 -1.766697
2008-03-28 06:53:57 51°13.665 2°55.954 13.9291 0.148107 0.835144 -1.766697
2008-03-28 06:54:02 51°13.666 2°55.954 13.929 0.148107 0.835159 -1.766697
2008-03-28 06:54:06 51°13.666 2°55.954 13.9296 0.148107 0.835144 -1.731873
2008-03-28 06:54:11 51°13.666 2°55.954 13.9297 0.148107 0.835144 -1.766697
2008-03-28 06:54:17 51°13.666 2°55.954 13.9298 0.148107 0.835159 -1.766697
2008-03-28 06:54:21 51°13.666 2°55.954 13.9299 0.148107 0.835159 -1.766697
2008-03-28 06:54:27 51°13.666 2°55.954 13.93 0.148107 0.835144 -1.766697
2008-03-28 06:54:32 51°13.666 2°55.954 13.9305 0.148107 0.835144 -1.766697
2008-03-28 06:54:36 51°13.666 2°55.954 13.9307 0.148107 0.835144 -1.766697
2008-03-28 06:54:42 51°13.666 2°55.954 13.9307 0.148107 0.835144 -1.731873
2008-03-28 06:54:47 51°13.666 2°55.954 13.9315 0.148107 0.835144 -1.731873
2008-03-28 06:54:51 51°13.666 2°55.954 13.9313 0.148107 0.835144 -1.731873
2008-03-28 06:54:56 51°13.666 2°55.954 13.9319 0.148107 0.835144 -1.766697
2008-03-28 06:55:01 51°13.666 2°55.954 13.9319 0.148107 0.835144 -1.766697
2008-03-28 06:55:06 51°13.666 2°55.954 13.9319 0.148107 0.835129 -1.766697
2008-03-28 06:55:11 51°13.666 2°55.954 13.9324 0.148107 0.835144 -1.731873
2008-03-28 06:55:16 51°13.666 2°55.954 13.9328 0.148107 0.835144 -1.766697
2008-03-28 06:55:21 51°13.666 2°55.954 13.9327 0.148107 0.835144 -1.766697
2008-03-28 06:55:26 51°13.666 2°55.954 13.9331 0.148107 0.835129 -1.731873
2008-03-28 06:55:31 51°13.666 2°55.954 13.9331 0.148107 0.835144 -1.766697
2008-03-28 06:55:36 51°13.666 2°55.954 13.9334 0.148107 0.835144 -1.766697
2008-03-28 06:55:41 51°13.666 2°55.954 13.934 0.148107 0.835129 -1.766697
2008-03-28 06:55:46 51°13.666 2°55.954 13.934 0.148107 0.835129 -1.731873
2008-03-28 06:55:52 51°13.665 2°55.953 13.9343 0.148107 0.835129 -1.731873
2008-03-28 06:55:56 51°13.665 2°55.953 13.9344 0.148107 0.835129 -1.766697
2008-03-28 06:56:02 51°13.665 2°55.953 13.9349 0.148107 0.835129 -1.766697
2008-03-28 06:56:07 51°13.666 2°55.953 13.9351 0.148107 0.835129 -1.731873
2008-03-28 06:56:11 51°13.665 2°55.953 13.9353 0.148107 0.835129 -1.766697
2008-03-28 06:56:17 51°13.666 2°55.953 13.9357 0.148107 0.835129 -1.766697
2008-03-28 06:56:21 51°13.666 2°55.953 13.936 0.148107 0.835129 -1.766697
2008-03-28 06:56:26 51°13.666 2°55.953 13.936 0.148107 0.835129 -1.766697
2008-03-28 06:56:31 51°13.665 2°55.953 13.9363 0.148107 0.835129 -1.766697
2008-03-28 06:56:37 51°13.665 2°55.953 13.9364 0.148107 0.835114 -1.766697
2008-03-28 06:56:41 51°13.665 2°55.953 13.9368 0.148107 0.835129 -1.766697
2008-03-28 06:56:46 51°13.665 2°55.953 13.9369 0.148107 0.835129 -1.731873
2008-03-28 06:56:51 51°13.665 2°55.953 13.9373 0.148107 0.835129 -1.731873
2008-03-28 06:56:56 51°13.665 2°55.953 13.9376 0.14821 0.835736 -1.766697
2008-03-28 06:57:01 51°13.665 2°55.953 13.9378 0.148107 0.835129 -1.731873
2008-03-28 06:57:06 51°13.665 2°55.953 13.9384 0.14821 0.835736 -1.766697
2008-03-28 06:57:11 51°13.665 2°55.953 13.9384 0.14821 0.835721 -1.766697
2008-03-28 06:57:16 51°13.665 2°55.953 13.9387 0.148107 0.835114 -1.731873
2008-03-28 06:57:22 51°13.665 2°55.953 13.9386 0.148107 0.835114 -1.731873
2008-03-28 06:57:27 51°13.665 2°55.953 13.9388 0.148107 0.835114 -1.766697
2008-03-28 06:57:31 51°13.665 2°55.953 13.9392 0.148107 0.835129 -1.731873
2008-03-28 06:57:37 51°13.665 2°55.953 13.9396 0.148107 0.835114 -1.766697
2008-03-28 06:57:41 51°13.665 2°55.953 13.9398 0.148107 0.835114 -1.766697
2008-03-28 06:57:47 51°13.665 2°55.953 13.9398 0.148107 0.835114 -1.766697
2008-03-28 06:57:51 51°13.665 2°55.953 13.9404 0.148107 0.835114 -1.766697
2008-03-28 06:57:57 51°13.665 2°55.953 13.9408 0.148107 0.835114 -1.731873
2008-03-28 06:58:01 51°13.665 2°55.953 13.9412 0.148107 0.835114 -1.766697
2008-03-28 06:58:07 51°13.665 2°55.953 13.9413 0.148107 0.835114 -1.766697
2008-03-28 06:58:11 51°13.665 2°55.953 13.9414 0.14821 0.835721 -1.731873
2008-03-28 06:58:17 51°13.665 2°55.953 13.9415 0.148107 0.835114 -1.766697
2008-03-28 06:58:21 51°13.665 2°55.953 13.942 0.148107 0.835114 -1.766697
2008-03-28 06:58:26 51°13.665 2°55.953 13.9422 0.148107 0.835114 -1.766697
2008-03-28 06:58:32 51°13.665 2°55.953 13.9426 0.148107 0.835114 -1.731873
2008-03-28 06:58:36 51°13.665 2°55.953 13.9427 0.148107 0.835114 -1.766697
2008-03-28 06:58:41 51°13.665 2°55.953 13.943 0.148107 0.835114 -1.766697
2008-03-28 06:58:47 51°13.665 2°55.953 13.9434 0.148107 0.835114 -1.731873
2008-03-28 06:58:51 51°13.665 2°55.953 13.9437 0.148107 0.835114 -1.731873
2008-03-28 06:58:56 51°13.665 2°55.953 13.9439 0.14821 0.835706 -1.731873
2008-03-28 06:59:01 51°13.665 2°55.953 13.9444 0.148107 0.835099 -1.766697
2008-03-28 06:59:06 51°13.665 2°55.953 13.9444 0.148107 0.835114 -1.731873
2008-03-28 06:59:12 51°13.665 2°55.953 13.9446 0.148107 0.835099 -1.766697
2008-03-28 06:59:16 51°13.665 2°55.953 13.9451 0.148107 0.835114 -1.766697
2008-03-28 06:59:22 51°13.665 2°55.953 13.9456 0.148107 0.835114 -1.766697
2008-03-28 06:59:27 51°13.665 2°55.953 13.9454 0.14821 0.835706 -1.766697
2008-03-28 06:59:31 51°13.665 2°55.953 13.9457 0.148107 0.835099 -1.731873
2008-03-28 06:59:37 51°13.665 2°55.953 13.946 0.148107 0.835099 -1.731873
2008-03-28 06:59:42 51°13.665 2°55.953 13.9463 0.148107 0.835099 -1.731873
2008-03-28 06:59:47 51°13.665 2°55.953 13.9467 0.14821 0.835706 -1.731873
2008-03-28 06:59:52 51°13.665 2°55.953 13.9468 0.14821 0.835706 -1.731873
2008-03-28 06:59:56 51°13.665 2°55.953 13.9471 0.148107 0.835099 -1.731873
2008-03-28 07:00:01 51°13.665 2°55.953 13.9476 0.148107 0.835099 -1.766697
2008-03-28 07:00:06 51°13.665 2°55.953 13.9478 0.14821 0.835706 -1.731873
2008-03-28 07:00:11 51°13.665 2°55.953 13.9476 0.148107 0.835099 -1.731873
2008-03-28 07:00:17 51°13.665 2°55.953 13.9483 0.14821 0.835706 -1.731873
2008-03-28 07:00:21 51°13.665 2°55.953 13.9485 0.14821 0.835706 -1.731873
2008-03-28 07:00:26 51°13.665 2°55.953 13.9489 0.148107 0.835099 -1.766697
2008-03-28 07:00:32 51°13.665 2°55.953 13.9489 0.14821 0.835721 -1.731873
2008-03-28 07:00:36 51°13.665 2°55.953 13.9494 0.148107 0.835099 -1.766697
2008-03-28 07:00:41 51°13.665 2°55.953 13.9496 0.148107 0.835099 -1.731873
2008-03-28 07:00:46 51°13.665 2°55.953 13.9499 0.14821 0.835721 -1.731873
2008-03-28 07:00:52 51°13.665 2°55.953 13.9503 0.14821 0.835721 -1.731873
2008-03-28 07:00:57 51°13.665 2°55.953 13.9506 0.14821 0.835706 -1.731873
2008-03-28 07:01:02 51°13.665 2°55.953 13.9509 0.148107 0.835099 -1.731873
2008-03-28 07:01:06 51°13.665 2°55.953 13.9511 0.148107 0.835099 -1.766697
2008-03-28 07:01:12 51°13.665 2°55.953 13.9513 0.148107 0.835099 -1.731873
2008-03-28 07:01:17 51°13.665 2°55.953 13.9515 0.148107 0.835099 -1.731873
2008-03-28 07:01:21 51°13.665 2°55.953 13.952 0.148107 0.835099 -1.731873
2008-03-28 07:01:26 51°13.665 2°55.953 13.9521 0.148107 0.835099 -1.766697
2008-03-28 07:01:31 51°13.665 2°55.953 13.9524 0.14821 0.835706 -1.766697
2008-03-28 07:01:36 51°13.665 2°55.953 13.9527 0.148107 0.835084 -1.731873
2008-03-28 07:01:42 51°13.665 2°55.953 13.9526 0.148107 0.835099 -1.731873
2008-03-28 07:01:47 51°13.665 2°55.953 13.9532 0.14821 0.835706 -1.766697
2008-03-28 07:01:52 51°13.665 2°55.953 13.9535 0.14821 0.835706 -1.766697
2008-03-28 07:01:56 51°13.665 2°55.953 13.9537 0.14821 0.835706 -1.766697
2008-03-28 07:02:02 51°13.665 2°55.953 13.9542 0.148107 0.835099 -1.731873
2008-03-28 07:02:06 51°13.665 2°55.953 13.9544 0.148107 0.835084 -1.766697
2008-03-28 07:02:11 51°13.665 2°55.953 13.955 0.148107 0.835084 -1.731873
2008-03-28 07:02:16 51°13.665 2°55.953 13.955 0.148107 0.835084 -1.766697
2008-03-28 07:02:22 51°13.665 2°55.953 13.9552 0.148107 0.835084 -1.766697
2008-03-28 07:02:26 51°13.665 2°55.953 13.9554 0.14821 0.835706 -1.731873
2008-03-28 07:02:31 51°13.665 2°55.953 13.9556 0.14821 0.835691 -1.766697
2008-03-28 07:02:37 51°13.665 2°55.953 13.956 0.14821 0.835691 -1.731873
2008-03-28 07:02:41 51°13.665 2°55.953 13.9562 0.14821 0.835691 -1.731873
2008-03-28 07:02:46 51°13.665 2°55.953 13.9566 0.14821 0.835691 -1.766697
2008-03-28 07:02:52 51°13.665 2°55.953 13.9573 0.14821 0.835691 -1.766697
2008-03-28 07:02:56 51°13.665 2°55.953 13.9576 0.14821 0.835691 -1.731873
2008-03-28 07:03:01 51°13.665 2°55.953 13.9574 0.148107 0.835084 -1.766697
2008-03-28 07:03:07 51°13.665 2°55.953 13.9579 0.14821 0.835691 -1.731873
2008-03-28 07:03:11 51°13.665 2°55.953 13.958 0.14821 0.835691 -1.766697
2008-03-28 07:03:17 51°13.665 2°55.953 13.9585 0.148107 0.835084 -1.731873
2008-03-28 07:03:21 51°13.665 2°55.953 13.959 0.148107 0.835084 -1.731873
2008-03-28 07:03:26 51°13.665 2°55.953 13.959 0.14821 0.835691 -1.766697
2008-03-28 07:03:32 51°13.665 2°55.953 13.9593 0.14821 0.835691 -1.766697
2008-03-28 07:03:36 51°13.665 2°55.953 13.9595 0.148107 0.835084 -1.731873
2008-03-28 07:03:41 51°13.665 2°55.953 13.9602 0.14821 0.835691 -1.731873
2008-03-28 07:03:46 51°13.666 2°55.953 13.9604 0.148107 0.835084 -1.766697
2008-03-28 07:03:51 51°13.666 2°55.953 13.9608 0.148107 0.835084 -1.766697
2008-03-28 07:03:57 51°13.666 2°55.953 13.9608 0.14821 0.835676 -1.731873
2008-03-28 07:04:02 51°13.666 2°55.953 13.9611 0.14821 0.835691 -1.731873
2008-03-28 07:04:06 51°13.666 2°55.953 13.9617 0.148107 0.835068 -1.731873
2008-03-28 07:04:12 51°13.666 2°55.953 13.9618 0.14821 0.835676 -1.731873
2008-03-28 07:04:16 51°13.666 2°55.953 13.9621 0.14821 0.835691 -1.731873
2008-03-28 07:04:22 51°13.666 2°55.953 13.9623 0.14821 0.835691 -1.731873
2008-03-28 07:04:27 51°13.666 2°55.953 13.9624 0.14821 0.835676 -1.766697
2008-03-28 07:04:31 51°13.666 2°55.953 13.963 0.14821 0.835676 -1.731873
2008-03-28 07:04:37 51°13.666 2°55.953 13.9635 0.148107 0.835068 -1.766697
2008-03-28 07:04:42 51°13.666 2°55.953 13.9637 0.14821 0.835676 -1.731873
2008-03-28 07:04:46 51°13.666 2°55.953 13.9637 0.14821 0.835676 -1.766697
2008-03-28 07:04:52 51°13.666 2°55.953 13.9645 0.14821 0.835676 -1.766697
2008-03-28 07:04:56 51°13.666 2°55.953 13.9646 0.14821 0.835676 -1.731873
2008-03-28 07:05:01 51°13.666 2°55.953 13.9647 0.14821 0.835661 -1.731873
2008-03-28 07:05:06 51°13.666 2°55.953 13.9654 0.14821 0.835676 -1.766697
2008-03-28 07:05:11 51°13.666 2°55.953 13.9658 0.14821 0.835676 -1.766697
2008-03-28 07:05:16 51°13.666 2°55.953 13.9661 0.14821 0.835676 -1.766697
2008-03-28 07:05:22 51°13.666 2°55.953 13.9661 0.14821 0.835676 -1.766697
2008-03-28 07:05:26 51°13.666 2°55.953 13.9666 0.14821 0.835676 -1.766697
2008-03-28 07:05:32 51°13.666 2°55.953 13.9666 0.148107 0.835068 -1.731873
2008-03-28 07:05:36 51°13.666 2°55.953 13.967 0.14821 0.835676 -1.766697
2008-03-28 07:05:42 51°13.666 2°55.953 13.9674 0.14821 0.835661 -1.766697
2008-03-28 07:05:46 51°13.666 2°55.953 13.9679 0.14821 0.835661 -1.731873
2008-03-28 07:05:51 51°13.666 2°55.953 13.9683 0.14821 0.835661 -1.731873
2008-03-28 07:05:57 51°13.666 2°55.953 13.9684 0.14821 0.835661 -1.731873
2008-03-28 07:06:02 51°13.666 2°55.953 13.9688 0.14821 0.835661 -1.766697
2008-03-28 07:06:07 51°13.666 2°55.953 13.9691 0.14821 0.835661 -1.766697
2008-03-28 07:06:11 51°13.666 2°55.953 13.9694 0.14821 0.835661 -1.766697
2008-03-28 07:06:16 51°13.665 2°55.953 13.9698 0.14821 0.835661 -1.731873
2008-03-28 07:06:21 51°13.665 2°55.953 13.9702 0.14821 0.835661 -1.731873
2008-03-28 07:06:26 51°13.665 2°55.953 13.9705 0.14821 0.835661 -1.731873
2008-03-28 07:06:31 51°13.665 2°55.953 13.9706 0.14821 0.835661 -1.766697
2008-03-28 07:06:36 51°13.665 2°55.953 13.9711 0.14821 0.835661 -1.766697
2008-03-28 07:06:42 51°13.665 2°55.953 13.9713 0.14821 0.835661 -1.731873
2008-03-28 07:06:47 51°13.665 2°55.953 13.9715 0.14821 0.835661 -1.766697
2008-03-28 07:06:51 51°13.665 2°55.953 13.972 0.14821 0.835661 -1.766697
2008-03-28 07:06:56 51°13.665 2°55.953 13.972 0.14821 0.835661 -1.766697
2008-03-28 07:07:01 51°13.665 2°55.953 13.9724 0.14821 0.835646 -1.731873
2008-03-28 07:07:06 51°13.665 2°55.953 13.9729 0.14821 0.835646 -1.731873
2008-03-28 07:07:11 51°13.665 2°55.953 13.9735 0.14821 0.835646 -1.731873
2008-03-28 07:07:17 51°13.665 2°55.953 13.9738 0.14821 0.835646 -1.766697
2008-03-28 07:07:21 51°13.665 2°55.953 13.9743 0.14821 0.835646 -1.766697
2008-03-28 07:07:27 51°13.665 2°55.953 13.9742 0.14821 0.835646 -1.766697
2008-03-28 07:07:32 51°13.665 2°55.953 13.9745 0.14821 0.835646 -1.731873
2008-03-28 07:07:37 51°13.665 2°55.953 13.9749 0.14821 0.835646 -1.731873
2008-03-28 07:07:42 51°13.665 2°55.953 13.9753 0.14821 0.835646 -1.731873
2008-03-28 07:07:46 51°13.665 2°55.953 13.9756 0.14821 0.835646 -1.731873
2008-03-28 07:07:52 51°13.665 2°55.953 13.9758 0.14821 0.835646 -1.731873
2008-03-28 07:07:56 51°13.665 2°55.953 13.9761 0.14821 0.835646 -1.766697
2008-03-28 07:08:01 51°13.665 2°55.953 13.9765 0.14821 0.835631 -1.766697
2008-03-28 07:08:08 51°13.665 2°55.953 13.9767 0.14821 0.835646 -1.766697
2008-03-28 07:08:11 51°13.665 2°55.953 13.9769 0.14821 0.835631 -1.766697
2008-03-28 07:08:17 51°13.665 2°55.953 13.9774 0.14821 0.835631 -1.766697
2008-03-28 07:08:21 51°13.665 2°55.953 13.9779 0.14821 0.835631 -1.766697
2008-03-28 07:08:26 51°13.665 2°55.953 13.9781 0.14821 0.835631 -1.731873
2008-03-28 07:08:32 51°13.665 2°55.953 13.9786 0.14821 0.835631 -1.731873
2008-03-28 07:08:36 51°13.665 2°55.953 13.9789 0.14821 0.835631 -1.766697
2008-03-28 07:08:41 51°13.665 2°55.953 13.9793 0.14821 0.835631 -1.766697
2008-03-28 07:08:47 51°13.665 2°55.953 13.9796 0.14821 0.835631 -1.731873
2008-03-28 07:08:51 51°13.665 2°55.953 13.9797 0.14821 0.835631 -1.731873
2008-03-28 07:08:57 51°13.665 2°55.953 13.9803 0.14821 0.835631 -1.766697
2008-03-28 07:09:02 51°13.665 2°55.953 13.9806 0.14821 0.835631 -1.766697
2008-03-28 07:09:07 51°13.665 2°55.954 13.9808 0.14821 0.835631 -1.731873
2008-03-28 07:09:12 51°13.665 2°55.954 13.9813 0.14821 0.835616 -1.731873
2008-03-28 07:09:16 51°13.665 2°55.954 13.9818 0.14821 0.835631 -1.731873
2008-03-28 07:09:21 51°13.665 2°55.954 13.9817 0.14821 0.835631 -1.731873
2008-03-28 07:09:26 51°13.665 2°55.954 13.9825 0.14821 0.835616 -1.766697
2008-03-28 07:09:31 51°13.665 2°55.954 13.9828 0.14821 0.835616 -1.766697
2008-03-28 07:09:36 51°13.665 2°55.954 13.9828 0.14821 0.835616 -1.731873
2008-03-28 07:09:42 51°13.665 2°55.954 13.983 0.14821 0.835616 -1.731873
2008-03-28 07:09:46 51°13.665 2°55.954 13.9836 0.14821 0.835616 -1.766697
2008-03-28 07:09:52 51°13.665 2°55.954 13.9843 0.14821 0.835616 -1.766697
2008-03-28 07:09:56 51°13.665 2°55.954 13.9844 0.14821 0.835616 -1.731873
2008-03-28 07:10:02 51°13.665 2°55.954 13.9844 0.14821 0.835616 -1.731873
2008-03-28 07:10:06 51°13.665 2°55.954 13.985 0.14821 0.835616 -1.766697
2008-03-28 07:10:12 51°13.666 2°55.954 13.985 0.14821 0.835616 -1.766697
2008-03-28 07:10:17 51°13.666 2°55.954 13.9857 0.14821 0.835616 -1.766697
2008-03-28 07:10:21 51°13.666 2°55.954 13.9862 0.14821 0.835616 -1.766697
2008-03-28 07:10:26 51°13.666 2°55.954 13.9864 0.14821 0.835616 -1.766697
2008-03-28 07:10:32 51°13.666 2°55.954 13.9867 0.14821 0.835616 -1.731873
2008-03-28 07:10:36 51°13.666 2°55.954 13.9871 0.14821 0.835616 -1.766697
2008-03-28 07:10:41 51°13.666 2°55.954 13.9876 0.14821 0.835616 -1.731873
2008-03-28 07:10:47 51°13.666 2°55.954 13.9877 0.14821 0.835616 -1.766697
2008-03-28 07:10:51 51°13.666 2°55.954 13.9881 0.14821 0.835616 -1.766697
2008-03-28 07:10:56 51°13.666 2°55.954 13.9883 0.14821 0.835616 -1.766697
2008-03-28 07:11:02 51°13.666 2°55.954 13.9891 0.14821 0.835616 -1.731873
2008-03-28 07:11:07 51°13.666 2°55.954 13.9891 0.14821 0.835616 -1.731873
2008-03-28 07:11:12 51°13.666 2°55.954 13.9894 0.14821 0.835616 -1.731873
2008-03-28 07:11:17 51°13.666 2°55.954 13.99 0.14821 0.835616 -1.766697
2008-03-28 07:11:21 51°13.666 2°55.953 13.9904 0.14821 0.835616 -1.766697
2008-03-28 07:11:26 51°13.666 2°55.953 13.9906 0.14821 0.835616 -1.731873
2008-03-28 07:11:31 51°13.666 2°55.953 13.9909 0.14821 0.835601 -1.766697
2008-03-28 07:11:36 51°13.666 2°55.953 13.9913 0.14821 0.835616 -1.731873
2008-03-28 07:11:42 51°13.666 2°55.953 13.9912 0.14821 0.835601 -1.731873
2008-03-28 07:11:47 51°13.666 2°55.953 13.9919 0.14821 0.835601 -1.731873
2008-03-28 07:11:52 51°13.666 2°55.953 13.9924 0.14821 0.835601 -1.731873
2008-03-28 07:11:56 51°13.666 2°55.953 13.9926 0.14821 0.835601 -1.731873
2008-03-28 07:12:01 51°13.666 2°55.953 13.9929 0.14821 0.835601 -1.766697
2008-03-28 07:12:06 51°13.666 2°55.953 13.9932 0.14821 0.835601 -1.731873
2008-03-28 07:12:11 51°13.666 2°55.953 13.9937 0.14821 0.835601 -1.731873
2008-03-28 07:12:16 51°13.666 2°55.953 13.994 0.14821 0.835601 -1.766697
2008-03-28 07:12:22 51°13.666 2°55.953 13.9944 0.14821 0.835601 -1.766697
2008-03-28 07:12:27 51°13.666 2°55.953 13.9949 0.14821 0.835601 -1.766697
2008-03-28 07:12:31 51°13.666 2°55.953 13.9949 0.14821 0.835601 -1.731873
2008-03-28 07:12:37 51°13.666 2°55.953 13.9954 0.14821 0.835601 -1.766697
2008-03-28 07:12:41 51°13.666 2°55.953 13.9958 0.14821 0.835601 -1.731873
2008-03-28 07:12:46 51°13.666 2°55.953 13.9962 0.14821 0.835601 -1.731873
2008-03-28 07:12:52 51°13.666 2°55.953 13.9966 0.14821 0.835601 -1.731873
2008-03-28 07:12:56 51°13.666 2°55.953 13.9968 0.14821 0.835601 -1.766697
2008-03-28 07:13:01 51°13.666 2°55.953 13.9971 0.14821 0.835601 -1.731873
2008-03-28 07:13:07 51°13.666 2°55.953 13.9973 0.14821 0.835601 -1.731873
2008-03-28 07:13:11 51°13.666 2°55.953 13.9976 0.14821 0.835601 -1.766697
2008-03-28 07:13:18 51°13.666 2°55.953 13.998 0.14821 0.835601 -1.766697
2008-03-28 07:13:21 51°13.666 2°55.953 13.9987 0.14821 0.835601 -1.766697
2008-03-28 07:13:26 51°13.666 2°55.953 13.999 0.14821 0.835601 -1.731873
2008-03-28 07:13:32 51°13.666 2°55.953 13.9992 0.14821 0.835586 -1.731873
2008-03-28 07:13:36 51°13.666 2°55.953 13.9997 0.14821 0.835601 -1.766697
2008-03-28 07:13:41 51°13.666 2°55.953 14.0001 0.14821 0.835601 -1.766697
2008-03-28 07:13:47 51°13.666 2°55.953 14.0006 0.14821 0.835586 -1.766697
2008-03-28 07:13:51 51°13.666 2°55.953 14.0009 0.14821 0.835586 -1.766697
2008-03-28 07:13:57 51°13.666 2°55.953 14.0009 0.14821 0.835586 -1.766697
2008-03-28 07:14:02 51°13.666 2°55.953 14.0017 0.14821 0.835601 -1.766697
2008-03-28 07:14:06 51°13.666 2°55.953 14.0019 0.14821 0.835586 -1.766697
2008-03-28 07:14:12 51°13.666 2°55.953 14.0022 0.14821 0.835601 -1.766697
2008-03-28 07:14:17 51°13.666 2°55.953 14.0024 0.14821 0.835586 -1.731873
2008-03-28 07:14:21 51°13.666 2°55.953 14.0027 0.14821 0.835586 -1.731873
2008-03-28 07:14:27 51°13.666 2°55.953 14.0033 0.14821 0.835586 -1.766697
2008-03-28 07:14:32 51°13.666 2°55.953 14.0034 0.14821 0.835586 -1.731873
2008-03-28 07:14:37 51°13.666 2°55.953 14.0042 0.14821 0.835601 -1.766697
2008-03-28 07:14:42 51°13.666 2°55.954 14.0044 0.14821 0.835601 -1.731873
2008-03-28 07:14:46 51°13.667 2°55.954 14.0047 0.14821 0.835586 -1.766697
2008-03-28 07:14:52 51°13.667 2°55.954 14.005 0.14821 0.835586 -1.766697
2008-03-28 07:14:56 51°13.667 2°55.954 14.0055 0.14821 0.835586 -1.731873
2008-03-28 07:15:01 51°13.667 2°55.954 14.0055 0.14821 0.835586 -1.766697
2008-03-28 07:15:07 51°13.667 2°55.954 14.0061 0.14821 0.835586 -1.731873
2008-03-28 07:15:12 51°13.667 2°55.954 14.0062 0.14821 0.835586 -1.766697
2008-03-28 07:15:17 51°13.666 2°55.954 14.0067 0.14821 0.835586 -1.766697
2008-03-28 07:15:22 51°13.666 2°55.953 14.0072 0.14821 0.835586 -1.766697
2008-03-28 07:15:27 51°13.666 2°55.953 14.0075 0.14821 0.835586 -1.731873
2008-03-28 07:15:32 51°13.666 2°55.953 14.0079 0.14821 0.835586 -1.766697
2008-03-28 07:15:37 51°13.666 2°55.953 14.0084 0.14821 0.835586 -1.766697
2008-03-28 07:15:42 51°13.667 2°55.953 14.0085 0.14821 0.835586 -1.731873
2008-03-28 07:15:47 51°13.667 2°55.954 14.0089 0.14821 0.835586 -1.731873
2008-03-28 07:15:52 51°13.667 2°55.954 14.0091 0.14821 0.835586 -1.731873
2008-03-28 07:15:57 51°13.667 2°55.954 14.0097 0.14821 0.835586 -1.731873
2008-03-28 07:16:02 51°13.667 2°55.954 14.0099 0.14821 0.835586 -1.766697
2008-03-28 07:16:07 51°13.667 2°55.954 14.0104 0.14821 0.835586 -1.766697
2008-03-28 07:16:12 51°13.667 2°55.954 14.011 0.14821 0.835586 -1.731873
2008-03-28 07:16:17 51°13.667 2°55.954 14.011 0.14821 0.835586 -1.766697
2008-03-28 07:16:22 51°13.667 2°55.954 14.0117 0.14821 0.835586 -1.766697
2008-03-28 07:16:27 51°13.667 2°55.954 14.0119 0.14821 0.835586 -1.766697
2008-03-28 07:16:32 51°13.667 2°55.954 14.0122 0.14821 0.835586 -1.766697
2008-03-28 07:16:37 51°13.667 2°55.954 14.0128 0.14821 0.835586 -1.766697
2008-03-28 07:16:42 51°13.667 2°55.954 14.0129 0.14821 0.835586 -1.766697
2008-03-28 07:16:47 51°13.667 2°55.955 14.0135 0.14821 0.835586 -1.731873
2008-03-28 07:16:52 51°13.667 2°55.955 14.0138 0.14821 0.835586 -1.731873
2008-03-28 07:16:57 51°13.667 2°55.955 14.0141 0.14821 0.835586 -1.766697
2008-03-28 07:17:02 51°13.667 2°55.955 14.0145 0.14821 0.835586 -1.766697
2008-03-28 07:17:07 51°13.667 2°55.955 14.015 0.14821 0.835571 -1.766697
2008-03-28 07:17:12 51°13.667 2°55.955 14.0153 0.14821 0.835586 -1.766697
2008-03-28 07:17:17 51°13.667 2°55.955 14.0157 0.14821 0.835586 -1.731873
2008-03-28 07:17:22 51°13.667 2°55.955 14.0163 0.14821 0.835586 -1.731873
2008-03-28 07:17:27 51°13.667 2°55.954 14.0166 0.14821 0.835586 -1.731873
2008-03-28 07:17:32 51°13.667 2°55.954 14.0168 0.14821 0.835586 -1.766697
2008-03-28 07:17:37 51°13.667 2°55.954 14.0175 0.14821 0.835586 -1.766697
2008-03-28 07:17:42 51°13.667 2°55.954 14.0175 0.14821 0.835586 -1.766697
2008-03-28 07:17:47 51°13.666 2°55.954 14.0178 0.14821 0.835586 -1.766697
2008-03-28 07:17:52 51°13.666 2°55.954 14.0184 0.14821 0.835586 -1.766697
2008-03-28 07:17:57 51°13.666 2°55.954 14.0186 0.14821 0.835571 -1.731873
2008-03-28 07:18:02 51°13.666 2°55.954 14.019 0.14821 0.835586 -1.766697
2008-03-28 07:18:07 51°13.666 2°55.954 14.0193 0.14821 0.835586 -1.766697
2008-03-28 07:18:12 51°13.666 2°55.954 14.0198 0.14821 0.835571 -1.766697
2008-03-28 07:18:17 51°13.666 2°55.954 14.0203 0.14821 0.835571 -1.766697
2008-03-28 07:18:22 51°13.666 2°55.954 14.0206 0.14821 0.835571 -1.766697
2008-03-28 07:18:27 51°13.666 2°55.954 14.0211 0.14821 0.835571 -1.731873
2008-03-28 07:18:32 51°13.666 2°55.954 14.0214 0.14821 0.835571 -1.731873
2008-03-28 07:18:37 51°13.666 2°55.954 14.0218 0.14821 0.835586 -1.766697
2008-03-28 07:18:42 51°13.666 2°55.955 14.0221 0.14821 0.835571 -1.766697
2008-03-28 07:18:47 51°13.666 2°55.955 14.0225 0.14821 0.835571 -1.766697
2008-03-28 07:18:52 51°13.666 2°55.955 14.023 0.14821 0.835571 -1.766697
2008-03-28 07:18:57 51°13.666 2°55.955 14.0231 0.14821 0.835571 -1.766697
2008-03-28 07:19:02 51°13.666 2°55.955 14.024 0.14821 0.835571 -1.766697
2008-03-28 07:19:07 51°13.666 2°55.955 14.0238 0.14821 0.835571 -1.731873
2008-03-28 07:19:12 51°13.666 2°55.955 14.0242 0.14821 0.835571 -1.766697
2008-03-28 07:19:17 51°13.666 2°55.955 14.0247 0.14821 0.835571 -1.731873
2008-03-28 07:19:22 51°13.666 2°55.955 14.0255 0.14821 0.835571 -1.731873
2008-03-28 07:19:27 51°13.667 2°55.955 14.0255 0.14821 0.835571 -1.766697
2008-03-28 07:19:32 51°13.667 2°55.955 14.0259 0.14821 0.835571 -1.731873
2008-03-28 07:19:37 51°13.667 2°55.955 14.0261 0.14821 0.835571 -1.766697
2008-03-28 07:19:42 51°13.667 2°55.955 14.0268 0.14821 0.835571 -1.731873
2008-03-28 07:19:47 51°13.667 2°55.956 14.0271 0.14821 0.835571 -1.766697
2008-03-28 07:19:52 51°13.667 2°55.956 14.0276 0.14821 0.835571 -1.766697
2008-03-28 07:19:57 51°13.667 2°55.956 14.0277 0.14821 0.835571 -1.731873
2008-03-28 07:20:02 51°13.667 2°55.956 14.0283 0.14821 0.835571 -1.766697
2008-03-28 07:20:07 51°13.667 2°55.956 14.0287 0.14821 0.835571 -1.766697
2008-03-28 07:20:12 51°13.667 2°55.956 14.0296 0.14821 0.835571 -1.731873
2008-03-28 07:20:17 51°13.667 2°55.956 14.0292 0.14821 0.835571 -1.766697
2008-03-28 07:20:22 51°13.667 2°55.956 14.0302 0.14821 0.835571 -1.766697
2008-03-28 07:20:27 51°13.667 2°55.956 14.0304 0.14821 0.835571 -1.766697
2008-03-28 07:20:32 51°13.667 2°55.956 14.0308 0.14821 0.835571 -1.731873
2008-03-28 07:20:37 51°13.667 2°55.956 14.0312 0.14821 0.835571 -1.766697
2008-03-28 07:20:42 51°13.666 2°55.956 14.0313 0.14821 0.835571 -1.766697
2008-03-28 07:20:47 51°13.666 2°55.956 14.032 0.14821 0.835571 -1.766697
2008-03-28 07:20:52 51°13.666 2°55.956 14.0323 0.14821 0.835571 -1.766697
2008-03-28 07:20:57 51°13.666 2°55.956 14.0324 0.14821 0.835571 -1.766697
2008-03-28 07:21:02 51°13.666 2°55.956 14.033 0.14821 0.835571 -1.731873
2008-03-28 07:21:07 51°13.666 2°55.956 14.0331 0.14821 0.835571 -1.766697
2008-03-28 07:21:12 51°13.666 2°55.956 14.0337 0.14821 0.835571 -1.766697
2008-03-28 07:21:17 51°13.666 2°55.956 14.034 0.14821 0.835571 -1.766697
2008-03-28 07:21:22 51°13.666 2°55.956 14.0346 0.14821 0.835571 -1.766697
2008-03-28 07:21:27 51°13.666 2°55.956 14.0351 0.14821 0.835571 -1.731873
2008-03-28 07:21:32 51°13.666 2°55.956 14.0349 0.14821 0.835571 -1.766697
2008-03-28 07:21:37 51°13.666 2°55.956 14.0355 0.14821 0.835571 -1.766697
2008-03-28 07:21:42 51°13.666 2°55.956 14.036 0.14821 0.835571 -1.766697
2008-03-28 07:21:47 51°13.666 2°55.955 14.0363 0.14821 0.835571 -1.731873
2008-03-28 07:21:52 51°13.666 2°55.955 14.0363 0.14821 0.835571 -1.731873
2008-03-28 07:21:57 51°13.666 2°55.955 14.037 0.14821 0.835586 -1.731873
2008-03-28 07:22:02 51°13.666 2°55.955 14.0373 0.14821 0.835586 -1.766697
2008-03-28 07:22:07 51°13.666 2°55.955 14.0378 0.14821 0.835571 -1.766697
2008-03-28 07:22:12 51°13.666 2°55.955 14.0379 0.14821 0.835586 -1.766697
2008-03-28 07:22:17 51°13.666 2°55.955 14.0382 0.14821 0.835571 -1.731873
2008-03-28 07:22:22 51°13.666 2°55.955 14.0386 0.14821 0.835571 -1.731873
2008-03-28 07:22:27 51°13.666 2°55.955 14.0391 0.14821 0.835586 -1.766697
2008-03-28 07:22:32 51°13.666 2°55.955 14.0395 0.14821 0.835586 -1.731873
2008-03-28 07:22:37 51°13.666 2°55.955 14.0399 0.14821 0.835586 -1.766697
2008-03-28 07:22:42 51°13.666 2°55.955 14.04 0.14821 0.835586 -1.766697
2008-03-28 07:22:47 51°13.666 2°55.955 14.0405 0.14821 0.835586 -1.766697
2008-03-28 07:22:52 51°13.666 2°55.955 14.041 0.14821 0.835586 -1.766697
2008-03-28 07:22:57 51°13.665 2°55.955 14.0412 0.14821 0.835586 -1.731873
2008-03-28 07:23:02 51°13.665 2°55.954 14.0413 0.14821 0.835586 -1.766697
2008-03-28 07:23:07 51°13.665 2°55.954 14.0414 0.14821 0.835586 -1.766697
2008-03-28 07:23:12 51°13.665 2°55.954 14.0422 0.14821 0.835586 -1.766697
2008-03-28 07:23:17 51°13.665 2°55.954 14.0422 0.14821 0.835586 -1.766697
2008-03-28 07:23:22 51°13.665 2°55.954 14.0427 0.14821 0.835586 -1.766697
2008-03-28 07:23:27 51°13.665 2°55.954 14.043 0.14821 0.835586 -1.731873
2008-03-28 07:23:32 51°13.665 2°55.954 14.0436 0.14821 0.835586 -1.766697
2008-03-28 07:23:37 51°13.665 2°55.954 14.0434 0.14821 0.835586 -1.731873
2008-03-28 07:23:42 51°13.665 2°55.954 14.0441 0.14821 0.835601 -1.731873
2008-03-28 07:23:47 51°13.665 2°55.954 14.0445 0.14821 0.835601 -1.766697
2008-03-28 07:23:52 51°13.665 2°55.954 14.0447 0.14821 0.835601 -1.766697
2008-03-28 07:23:57 51°13.665 2°55.954 14.0451 0.14821 0.835601 -1.731873
2008-03-28 07:24:02 51°13.665 2°55.954 14.0449 0.14821 0.835601 -1.731873
2008-03-28 07:24:07 51°13.665 2°55.954 14.0454 0.14821 0.835601 -1.731873
2008-03-28 07:24:12 51°13.665 2°55.954 14.0456 0.14821 0.835601 -1.731873
2008-03-28 07:24:17 51°13.665 2°55.954 14.0464 0.14821 0.835601 -1.766697
2008-03-28 07:24:22 51°13.665 2°55.954 14.0466 0.14821 0.835601 -1.766697
2008-03-28 07:24:27 51°13.665 2°55.954 14.0468 0.14821 0.835616 -1.766697
2008-03-28 07:24:32 51°13.666 2°55.954 14.0471 0.14821 0.835601 -1.766697
2008-03-28 07:24:37 51°13.666 2°55.954 14.0474 0.14821 0.835601 -1.731873
2008-03-28 07:24:42 51°13.666 2°55.954 14.0478 0.14821 0.835616 -1.731873
2008-03-28 07:24:47 51°13.666 2°55.954 14.048 0.14821 0.835616 -1.731873
2008-03-28 07:24:52 51°13.666 2°55.954 14.0486 0.14821 0.835616 -1.731873
2008-03-28 07:24:57 51°13.666 2°55.954 14.0486 0.14821 0.835616 -1.731873
2008-03-28 07:25:02 51°13.666 2°55.954 14.0489 0.14821 0.835616 -1.766697
2008-03-28 07:25:07 51°13.666 2°55.954 14.0493 0.14821 0.835616 -1.731873
2008-03-28 07:25:12 51°13.666 2°55.954 14.0496 0.14821 0.835616 -1.731873
2008-03-28 07:25:17 51°13.666 2°55.954 14.05 0.14821 0.835616 -1.766697
2008-03-28 07:25:22 51°13.666 2°55.954 14.0501 0.14821 0.835616 -1.766697
2008-03-28 07:25:27 51°13.666 2°55.954 14.0504 0.14821 0.835616 -1.766697
2008-03-28 07:25:32 51°13.666 2°55.954 14.0508 0.14821 0.835631 -1.766697
2008-03-28 07:25:37 51°13.666 2°55.954 14.0515 0.14821 0.835616 -1.731873
2008-03-28 07:25:42 51°13.666 2°55.954 14.0516 0.14821 0.835631 -1.766697
2008-03-28 07:25:47 51°13.666 2°55.954 14.0521 0.14821 0.835631 -1.766697
2008-03-28 07:25:52 51°13.666 2°55.953 14.0519 0.14821 0.835631 -1.766697
2008-03-28 07:25:57 51°13.666 2°55.953 14.0524 0.14821 0.835631 -1.766697
2008-03-28 07:26:02 51°13.666 2°55.953 14.0529 0.148107 0.835038 -1.731873
2008-03-28 07:26:07 51°13.666 2°55.953 14.0529 0.148107 0.835023 -1.766697
2008-03-28 07:26:12 51°13.666 2°55.953 14.0535 0.148107 0.835023 -1.731873
2008-03-28 07:26:17 51°13.666 2°55.953 14.0539 0.148107 0.835023 -1.766697
2008-03-28 07:26:22 51°13.666 2°55.953 14.0541 0.148107 0.835023 -1.766697
2008-03-28 07:26:27 51°13.666 2°55.953 14.0547 0.148107 0.835038 -1.766697
2008-03-28 07:26:32 51°13.666 2°55.953 14.055 0.14821 0.835646 -1.731873
2008-03-28 07:26:37 51°13.666 2°55.953 14.0551 0.148107 0.835038 -1.766697
2008-03-28 07:26:42 51°13.666 2°55.953 14.0557 0.148107 0.835053 -1.731873
2008-03-28 07:26:47 51°13.666 2°55.953 14.056 0.148107 0.835038 -1.766697
2008-03-28 07:26:52 51°13.666 2°55.953 14.0565 0.148107 0.835038 -1.766697
2008-03-28 07:26:57 51°13.666 2°55.953 14.0568 0.148107 0.835053 -1.731873
2008-03-28 07:27:02 51°13.666 2°55.953 14.0571 0.148107 0.835053 -1.766697
2008-03-28 07:27:07 51°13.666 2°55.953 14.0576 0.148107 0.835053 -1.766697
2008-03-28 07:27:12 51°13.666 2°55.953 14.0577 0.148107 0.835068 -1.766697
2008-03-28 07:27:17 51°13.666 2°55.953 14.0583 0.148107 0.835068 -1.766697
2008-03-28 07:27:22 51°13.667 2°55.953 14.0587 0.148107 0.835068 -1.766697
2008-03-28 07:27:27 51°13.667 2°55.953 14.059 0.148107 0.835068 -1.731873
2008-03-28 07:27:32 51°13.667 2°55.953 14.0597 0.148107 0.835068 -1.731873
2008-03-28 07:27:37 51°13.667 2°55.953 14.0598 0.148107 0.835068 -1.766697
2008-03-28 07:27:42 51°13.667 2°55.953 14.0606 0.148107 0.835084 -1.766697
2008-03-28 07:27:47 51°13.667 2°55.953 14.0607 0.148107 0.835084 -1.766697
2008-03-28 07:27:52 51°13.667 2°55.953 14.0607 0.148107 0.835084 -1.766697
2008-03-28 07:27:57 51°13.667 2°55.953 14.0612 0.148107 0.835084 -1.766697
2008-03-28 07:28:02 51°13.667 2°55.953 14.0615 0.148107 0.835099 -1.766697
2008-03-28 07:28:07 51°13.667 2°55.953 14.0618 0.148107 0.835099 -1.766697
2008-03-28 07:28:12 51°13.667 2°55.953 14.0621 0.148107 0.835099 -1.766697
2008-03-28 07:28:17 51°13.667 2°55.953 14.0628 0.148107 0.835099 -1.766697
2008-03-28 07:28:22 51°13.667 2°55.953 14.0629 0.148107 0.835099 -1.766697
2008-03-28 07:28:27 51°13.667 2°55.953 14.0632 0.148107 0.835114 -1.731873
2008-03-28 07:28:32 51°13.667 2°55.953 14.0635 0.148107 0.835114 -1.766697
2008-03-28 07:28:37 51°13.667 2°55.953 14.0638 0.148107 0.835114 -1.731873
2008-03-28 07:28:42 51°13.667 2°55.953 14.0642 0.148107 0.835114 -1.766697
2008-03-28 07:28:47 51°13.667 2°55.953 14.0643 0.148107 0.835114 -1.766697
2008-03-28 07:28:52 51°13.667 2°55.953 14.0649 0.148107 0.835114 -1.766697
2008-03-28 07:28:57 51°13.667 2°55.953 14.065 0.148107 0.835129 -1.766697
2008-03-28 07:29:02 51°13.667 2°55.953 14.0653 0.148107 0.835129 -1.766697
2008-03-28 07:29:07 51°13.667 2°55.953 14.0662 0.148107 0.835144 -1.766697
2008-03-28 07:29:12 51°13.667 2°55.953 14.066 0.148107 0.835129 -1.731873
2008-03-28 07:29:17 51°13.667 2°55.953 14.0664 0.148107 0.835144 -1.731873
2008-03-28 07:29:22 51°13.667 2°55.953 14.0668 0.148107 0.835144 -1.731873
2008-03-28 07:29:27 51°13.667 2°55.953 14.0674 0.148107 0.835144 -1.766697
2008-03-28 07:29:32 51°13.667 2°55.953 14.0676 0.148107 0.835144 -1.766697
2008-03-28 07:29:37 51°13.667 2°55.953 14.0679 0.148107 0.835159 -1.731873
2008-03-28 07:29:42 51°13.667 2°55.953 14.0682 0.148107 0.835159 -1.731873
2008-03-28 07:29:47 51°13.667 2°55.953 14.0685 0.148107 0.835159 -1.766697
2008-03-28 07:29:52 51°13.667 2°55.953 14.0687 0.148107 0.835159 -1.766697
2008-03-28 07:29:57 51°13.667 2°55.953 14.0691 0.148107 0.835159 -1.731873
2008-03-28 07:30:02 51°13.667 2°55.953 14.0694 0.148107 0.835174 -1.731873
2008-03-28 07:30:07 51°13.667 2°55.953 14.0697 0.148107 0.835174 -1.731873
2008-03-28 07:30:12 51°13.667 2°55.953 14.0699 0.148107 0.835189 -1.731873
2008-03-28 07:30:17 51°13.667 2°55.953 14.0703 0.148107 0.835189 -1.766697
2008-03-28 07:30:22 51°13.666 2°55.953 14.071 0.148107 0.835189 -1.766697
2008-03-28 07:30:27 51°13.666 2°55.953 14.071 0.148107 0.835189 -1.766697
2008-03-28 07:30:32 51°13.666 2°55.953 14.0714 0.148107 0.835189 -1.766697
2008-03-28 07:30:37 51°13.666 2°55.952 14.0721 0.148107 0.835189 -1.731873
2008-03-28 07:30:42 51°13.665 2°55.952 14.0719 0.148107 0.835204 -1.766697
2008-03-28 07:30:47 51°13.665 2°55.952 14.0724 0.148107 0.835204 -1.731873
2008-03-28 07:30:52 51°13.666 2°55.953 14.0727 0.148107 0.835204 -1.731873
2008-03-28 07:30:57 51°13.666 2°55.953 14.0728 0.148107 0.835219 -1.766697
2008-03-28 07:31:02 51°13.666 2°55.953 14.0731 0.148107 0.835219 -1.766697
2008-03-28 07:31:07 51°13.666 2°55.953 14.0736 0.148107 0.835219 -1.766697
2008-03-28 07:31:12 51°13.666 2°55.953 14.074 0.148107 0.835219 -1.731873
2008-03-28 07:31:17 51°13.666 2°55.953 14.0742 0.148107 0.835234 -1.766697
2008-03-28 07:31:22 51°13.666 2°55.953 14.0747 0.148107 0.835234 -1.766697
2008-03-28 07:31:27 51°13.666 2°55.953 14.075 0.148107 0.835234 -1.766697
2008-03-28 07:31:32 51°13.666 2°55.953 14.075 0.148107 0.835234 -1.766697
2008-03-28 07:31:37 51°13.666 2°55.953 14.0753 0.148107 0.835249 -1.731873
2008-03-28 07:31:42 51°13.666 2°55.953 14.076 0.148107 0.835249 -1.766697
2008-03-28 07:31:47 51°13.666 2°55.953 14.0758 0.148107 0.835249 -1.766697
2008-03-28 07:31:52 51°13.666 2°55.953 14.0762 0.148107 0.835249 -1.766697
2008-03-28 07:31:57 51°13.665 2°55.953 14.0765 0.148107 0.835264 -1.766697
2008-03-28 07:32:02 51°13.665 2°55.953 14.0771 0.148107 0.835264 -1.766697
2008-03-28 07:32:07 51°13.665 2°55.953 14.0772 0.148107 0.835264 -1.766697
2008-03-28 07:32:12 51°13.665 2°55.953 14.0777 0.148107 0.835279 -1.731873
2008-03-28 07:32:17 51°13.665 2°55.953 14.0777 0.148107 0.835279 -1.731873
2008-03-28 07:32:22 51°13.665 2°55.953 14.0784 0.148107 0.835279 -1.731873
2008-03-28 07:32:27 51°13.665 2°55.953 14.0785 0.148107 0.835279 -1.766697
2008-03-28 07:32:32 51°13.665 2°55.953 14.0789 0.148107 0.835294 -1.766697
2008-03-28 07:32:37 51°13.665 2°55.953 14.0792 0.148107 0.835294 -1.766697
2008-03-28 07:32:42 51°13.665 2°55.953 14.0797 0.148107 0.835309 -1.731873
2008-03-28 07:32:47 51°13.665 2°55.953 14.0799 0.148107 0.835309 -1.766697
2008-03-28 07:32:52 51°13.665 2°55.953 14.0804 0.148107 0.835309 -1.766697
2008-03-28 07:32:57 51°13.665 2°55.953 14.0806 0.148107 0.835309 -1.731873
2008-03-28 07:33:02 51°13.665 2°55.953 14.0807 0.148107 0.835324 -1.731873
2008-03-28 07:33:07 51°13.665 2°55.953 14.0814 0.148107 0.835324 -1.766697
2008-03-28 07:33:12 51°13.665 2°55.953 14.0815 0.148107 0.835324 -1.766697
2008-03-28 07:33:17 51°13.665 2°55.953 14.082 0.148107 0.83534 -1.766697
2008-03-28 07:33:22 51°13.665 2°55.953 14.0821 0.148107 0.83534 -1.766697
2008-03-28 07:33:27 51°13.665 2°55.953 14.0829 0.148107 0.83534 -1.766697
2008-03-28 07:33:32 51°13.666 2°55.953 14.0831 0.148107 0.83534 -1.731873
2008-03-28 07:33:37 51°13.666 2°55.953 14.0831 0.148107 0.835355 -1.766697
2008-03-28 07:33:42 51°13.666 2°55.953 14.0836 0.148107 0.835355 -1.766697
2008-03-28 07:33:47 51°13.666 2°55.953 14.084 0.148107 0.83537 -1.766697
2008-03-28 07:33:52 51°13.666 2°55.953 14.0846 0.148107 0.83537 -1.766697
2008-03-28 07:33:57 51°13.666 2°55.953 14.0845 0.148107 0.83537 -1.766697
2008-03-28 07:34:02 51°13.666 2°55.953 14.0852 0.148107 0.835385 -1.766697
2008-03-28 07:34:07 51°13.667 2°55.953 14.0855 0.148107 0.835385 -1.766697
2008-03-28 07:34:12 51°13.667 2°55.953 14.086 0.148107 0.8354 -1.766697
2008-03-28 07:34:17 51°13.666 2°55.953 14.0861 0.148107 0.8354 -1.766697
2008-03-28 07:34:22 51°13.666 2°55.953 14.0865 0.148107 0.8354 -1.766697
2008-03-28 07:34:27 51°13.666 2°55.953 14.0868 0.148107 0.8354 -1.766697
2008-03-28 07:34:32 51°13.665 2°55.953 14.087 0.148107 0.835415 -1.766697
2008-03-28 07:34:37 51°13.665 2°55.953 14.0876 0.148107 0.835415 -1.731873
2008-03-28 07:34:42 51°13.665 2°55.953 14.0876 0.148107 0.83543 -1.766697
2008-03-28 07:34:47 51°13.665 2°55.953 14.088 0.148107 0.83543 -1.731873
2008-03-28 07:34:52 51°13.665 2°55.953 14.0883 0.148107 0.83543 -1.731873
2008-03-28 07:34:57 51°13.666 2°55.953 14.089 0.148107 0.835445 -1.766697
2008-03-28 07:35:02 51°13.666 2°55.953 14.089 0.148107 0.83546 -1.731873
2008-03-28 07:35:07 51°13.666 2°55.953 14.0896 0.148107 0.83546 -1.766697
2008-03-28 07:35:12 51°13.666 2°55.953 14.0899 0.148107 0.83546 -1.731873
2008-03-28 07:35:17 51°13.666 2°55.953 14.0902 0.148107 0.83546 -1.766697
2008-03-28 07:35:22 51°13.666 2°55.953 14.0905 0.148107 0.83546 -1.766697
2008-03-28 07:35:27 51°13.666 2°55.953 14.091 0.148107 0.835475 -1.731873
2008-03-28 07:35:32 51°13.666 2°55.953 14.0913 0.148107 0.83549 -1.766697
2008-03-28 07:35:37 51°13.666 2°55.953 14.0916 0.148107 0.83549 -1.731873
2008-03-28 07:35:42 51°13.665 2°55.953 14.0919 0.148107 0.835505 -1.731873
2008-03-28 07:35:47 51°13.665 2°55.953 14.0927 0.148107 0.83552 -1.731873
2008-03-28 07:35:52 51°13.665 2°55.953 14.0928 0.148107 0.83552 -1.731873
2008-03-28 07:35:57 51°13.665 2°55.954 14.093 0.148107 0.83552 -1.766697
2008-03-28 07:36:02 51°13.665 2°55.954 14.0933 0.148107 0.835535 -1.766697
2008-03-28 07:36:07 51°13.665 2°55.953 14.0937 0.148107 0.835535 -1.731873
2008-03-28 07:36:12 51°13.665 2°55.953 14.094 0.148108 0.83555 -1.766697
2008-03-28 07:36:17 51°13.665 2°55.953 14.0946 0.148108 0.83555 -1.731873
2008-03-28 07:36:22 51°13.665 2°55.953 14.0948 0.148108 0.83555 -1.731873
2008-03-28 07:36:27 51°13.664 2°55.953 14.0954 0.148108 0.835565 -1.731873
2008-03-28 07:36:32 51°13.664 2°55.953 14.0958 0.148108 0.835565 -1.731873
2008-03-28 07:36:37 51°13.664 2°55.953 14.096 0.148108 0.835581 -1.766697
2008-03-28 07:36:42 51°13.664 2°55.953 14.0966 0.148108 0.835581 -1.766697
2008-03-28 07:36:47 51°13.664 2°55.952 14.097 0.148108 0.835596 -1.731873
2008-03-28 07:36:52 51°13.664 2°55.952 14.0975 0.148108 0.835596 -1.731873
2008-03-28 07:36:57 51°13.664 2°55.951 14.0979 0.148108 0.835596 -1.766697
2008-03-28 07:37:02 51°13.665 2°55.949 14.098 0.148005 0.835003 -1.766697
2008-03-28 07:37:07 51°13.665 2°55.948 14.0985 0.148005 0.835018 -1.731873
2008-03-28 07:37:12 51°13.666 2°55.946 14.0984 0.148005 0.835018 -1.766697
2008-03-28 07:37:17 51°13.667 2°55.943 14.0993 0.148005 0.835033 -1.766697
2008-03-28 07:37:22 51°13.668 2°55.941 14.0996 0.148005 0.835033 -1.766697
2008-03-28 07:37:27 51°13.669 2°55.938 14.0999 0.148005 0.835033 -1.766697
2008-03-28 07:37:32 51°13.671 2°55.935 14.1004 0.148005 0.835048 -1.731873
2008-03-28 07:37:37 51°13.672 2°55.931 14.1009 0.148005 0.835063 -1.766697
2008-03-28 07:37:42 51°13.673 2°55.927 14.1015 0.148005 0.835063 -1.731873
2008-03-28 07:37:47 51°13.674 2°55.923 14.1017 0.148005 0.835063 -1.766697
2008-03-28 07:37:52 51°13.676 2°55.918 14.1021 0.148005 0.835063 -1.766697
2008-03-28 07:37:57 51°13.677 2°55.913 14.1027 0.148005 0.835078 -1.731873
2008-03-28 07:38:02 51°13.679 2°55.907 14.1031 0.148005 0.835093 -1.766697
2008-03-28 07:38:07 51°13.68 2°55.9 14.1037 0.148005 0.835093 -1.731873
2008-03-28 07:38:12 51°13.681 2°55.894 14.1039 0.148005 0.835108 -1.766697
2008-03-28 07:38:17 51°13.683 2°55.887 14.1045 0.148005 0.835123 -1.766697
2008-03-28 07:38:22 51°13.684 2°55.879 14.1051 0.148005 0.835123 -1.766697
2008-03-28 07:38:27 51°13.685 2°55.872 14.1057 0.148005 0.835123 -1.766697
2008-03-28 07:38:32 51°13.686 2°55.865 14.1058 0.148005 0.835138 -1.766697
2008-03-28 07:38:37 51°13.687 2°55.857 14.1062 0.148005 0.835153 -1.766697
2008-03-28 07:38:42 51°13.688 2°55.85 14.107 0.148005 0.835153 -1.766697
2008-03-28 07:38:47 51°13.688 2°55.843 14.1074 0.148005 0.835168 -1.766697
2008-03-28 07:38:52 51°13.689 2°55.836 14.108 0.148005 0.835168 -1.766697
2008-03-28 07:38:57 51°13.689 2°55.829 14.1086 0.148005 0.835168 -1.731873
2008-03-28 07:39:02 51°13.69 2°55.821 14.1089 0.148005 0.835168 -1.766697
2008-03-28 07:39:07 51°13.691 2°55.815 14.1098 0.148005 0.835184 -1.766697
2008-03-28 07:39:12 51°13.691 2°55.808 14.1103 0.148005 0.835199 -1.766697
2008-03-28 07:39:17 51°13.691 2°55.802 14.1106 0.148005 0.835199 -1.731873
2008-03-28 07:39:22 51°13.69 2°55.795 14.1112 0.148005 0.835199 -1.731873
2008-03-28 07:39:27 51°13.69 2°55.789 14.1117 0.148005 0.835199 -1.766697
2008-03-28 07:39:32 51°13.69 2°55.783 14.112 0.148005 0.835214 -1.766697
2008-03-28 07:39:37 51°13.689 2°55.777 14.1125 0.148005 0.835229 -1.766697
2008-03-28 07:39:42 51°13.689 2°55.772 14.1131 0.148005 0.835229 -1.766697
2008-03-28 07:39:47 51°13.689 2°55.766 14.1135 0.148005 0.835244 -1.766697
2008-03-28 07:39:52 51°13.688 2°55.761 14.114 0.148005 0.835244 -1.766697
2008-03-28 07:39:57 51°13.688 2°55.756 14.1143 0.148005 0.835244 -1.766697
2008-03-28 07:40:02 51°13.688 2°55.751 14.1148 0.148005 0.835259 -1.766697
2008-03-28 07:40:07 51°13.687 2°55.747 14.1153 0.148005 0.835259 -1.766697
2008-03-28 07:40:12 51°13.687 2°55.743 14.1155 0.148005 0.835259 -1.731873
2008-03-28 07:40:17 51°13.686 2°55.739 14.1161 0.148005 0.835274 -1.766697
2008-03-28 07:40:22 51°13.686 2°55.735 14.1165 0.148005 0.835274 -1.766697
2008-03-28 07:40:27 51°13.685 2°55.732 14.1168 0.148005 0.835289 -1.766697
2008-03-28 07:40:32 51°13.684 2°55.73 14.1174 0.148005 0.835289 -1.766697
2008-03-28 07:40:37 51°13.684 2°55.727 14.1178 0.148005 0.835304 -1.731873
2008-03-28 07:40:42 51°13.684 2°55.725 14.1186 0.148005 0.835319 -1.766697
2008-03-28 07:40:47 51°13.684 2°55.724 14.1182 0.148005 0.835319 -1.766697
2008-03-28 07:40:52 51°13.684 2°55.723 14.1192 0.148005 0.835319 -1.766697
2008-03-28 07:40:57 51°13.684 2°55.722 14.1194 0.148005 0.835334 -1.766697
2008-03-28 07:41:02 51°13.685 2°55.722 14.1201 0.148005 0.835334 -1.766697
2008-03-28 07:41:07 51°13.687 2°55.722 14.1202 0.148005 0.835349 -1.766697
2008-03-28 07:41:12 51°13.689 2°55.721 14.1208 0.148005 0.835349 -1.766697
2008-03-28 07:41:17 51°13.691 2°55.721 14.1209 0.148005 0.835349 -1.731873
2008-03-28 07:41:22 51°13.694 2°55.72 14.1217 0.148005 0.835349 -1.731873
2008-03-28 07:41:27 51°13.698 2°55.719 14.1222 0.148005 0.835364 -1.731873
2008-03-28 07:41:32 51°13.703 2°55.717 14.1226 0.148005 0.835395 -1.731873
2008-03-28 07:41:37 51°13.709 2°55.714 14.1226 0.148005 0.835395 -1.766697
2008-03-28 07:41:42 51°13.715 2°55.709 14.1231 0.148005 0.835425 -1.731873
2008-03-28 07:41:47 51°13.722 2°55.704 14.1237 0.148005 0.83541 -1.731873
2008-03-28 07:41:52 51°13.729 2°55.698 14.124 0.148005 0.83541 -1.731873
2008-03-28 07:41:57 51°13.737 2°55.693 14.1248 0.148005 0.83541 -1.766697
2008-03-28 07:42:02 51°13.745 2°55.686 14.1249 0.148005 0.835395 -1.731873
2008-03-28 07:42:07 51°13.754 2°55.68 14.1251 0.148005 0.835395 -1.731873
2008-03-28 07:42:12 51°13.762 2°55.673 14.1257 0.148005 0.835364 -1.731873
2008-03-28 07:42:17 51°13.772 2°55.665 14.1259 0.148005 0.835379 -1.731873
2008-03-28 07:42:22 51°13.781 2°55.658 14.1262 0.148005 0.835379 -1.731873
2008-03-28 07:42:27 51°13.791 2°55.651 14.1264 0.148005 0.835379 -1.766697
2008-03-28 07:42:32 51°13.801 2°55.644 14.1267 0.148005 0.835379 -1.766697
2008-03-28 07:42:37 51°13.811 2°55.636 14.1272 0.148005 0.835395 -1.731873
2008-03-28 07:42:42 51°13.821 2°55.629 14.1274 0.148005 0.835395 -1.766697
2008-03-28 07:42:47 51°13.832 2°55.621 14.1277 0.148005 0.83541 -1.766697
2008-03-28 07:42:52 51°13.842 2°55.613 14.1279 0.148005 0.83541 -1.766697
2008-03-28 07:42:57 51°13.853 2°55.605 14.1285 0.148005 0.835425 -1.731873
2008-03-28 07:43:02 51°13.864 2°55.597 14.1287 0.148005 0.835425 -1.766697
2008-03-28 07:43:07 51°13.875 2°55.589 14.129 0.148005 0.835425 -1.766697
2008-03-28 07:43:12 51°13.886 2°55.581 14.1295 0.148005 0.83544 -1.731873
2008-03-28 07:43:17 51°13.898 2°55.572 14.1296 0.148005 0.83544 -1.766697
2008-03-28 07:43:21 51°13.906 2°55.566 14.1302 0.148005 0.83544 -1.766697
2008-03-28 07:43:26 51°13.917 2°55.558 14.1302 0.147902 0.834832 -1.731873
2008-03-28 07:43:32 51°13.931 2°55.548 14.1307 0.148005 0.835455 -1.766697
2008-03-28 07:43:36 51°13.94 2°55.541 14.131 0.147902 0.834862 -1.731873
2008-03-28 07:43:41 51°13.951 2°55.533 14.1312 0.147902 0.834847 -1.731873
2008-03-28 07:43:46 51°13.962 2°55.525 14.1316 0.147902 0.834862 -1.731873
2008-03-28 07:43:51 51°13.973 2°55.516 14.132 0.147902 0.834862 -1.731873
2008-03-28 07:43:56 51°13.984 2°55.509 14.132 0.147902 0.834862 -1.731873
2008-03-28 07:44:00 51°13.993 2°55.502 14.1328 0.147902 0.834862 -1.731873
2008-03-28 07:44:05 51°14.004 2°55.493 14.1328 0.147902 0.834862 -1.766697
2008-03-28 07:44:10 51°14.016 2°55.485 14.1331 0.147902 0.834862 -1.766697
2008-03-28 07:44:15 51°14.027 2°55.477 14.1333 0.147902 0.834862 -1.731873
2008-03-28 07:44:20 51°14.038 2°55.469 14.1339 0.147902 0.834862 -1.731873
2008-03-28 07:44:25 51°14.049 2°55.461 14.1346 0.147902 0.834862 -1.766697
2008-03-28 07:44:30 51°14.06 2°55.453 14.1342 0.147902 0.834877 -1.766697
2008-03-28 07:44:35 51°14.071 2°55.445 14.1349 0.147902 0.834877 -1.766697
2008-03-28 07:44:40 51°14.083 2°55.437 14.1347 0.147902 0.834877 -1.766697
2008-03-28 07:44:45 51°14.094 2°55.429 14.1356 0.147902 0.834877 -1.766697
2008-03-28 07:44:49 51°14.103 2°55.423 14.1359 0.147902 0.834877 -1.766697
2008-03-28 07:44:54 51°14.115 2°55.415 14.1362 0.147902 0.834877 -1.766697
2008-03-28 07:44:59 51°14.127 2°55.407 14.1366 0.147902 0.834892 -1.731873
2008-03-28 07:45:04 51°14.138 2°55.398 14.1368 0.147902 0.834892 -1.731873
2008-03-28 07:45:10 51°14.153 2°55.386 14.1375 0.147902 0.834892 -1.766697
2008-03-28 07:45:16 51°14.167 2°55.374 14.1379 0.147902 0.834877 -1.731873
2008-03-28 07:45:21 51°14.179 2°55.362 14.138 0.147902 0.834877 -1.731873
2008-03-28 07:45:26 51°14.19 2°55.35 14.138 0.147902 0.834892 -1.731873
2008-03-28 07:45:32 51°14.204 2°55.336 14.1386 0.147902 0.834877 -1.766697
2008-03-28 07:45:36 51°14.213 2°55.326 14.1392 0.147902 0.834892 -1.766697
2008-03-28 07:45:42 51°14.226 2°55.31 14.1395 0.147902 0.834892 -1.731873
2008-03-28 07:45:47 51°14.237 2°55.296 14.14 0.147902 0.834892 -1.731873
2008-03-28 07:45:52 51°14.247 2°55.281 14.1406 0.147902 0.834892 -1.731873
2008-03-28 07:45:57 51°14.257 2°55.266 14.141 0.147902 0.834907 -1.731873
2008-03-28 07:46:01 51°14.264 2°55.253 14.1411 0.147902 0.834922 -1.731873
2008-03-28 07:46:06 51°14.274 2°55.236 14.1414 0.147902 0.834907 -1.731873
2008-03-28 07:46:12 51°14.284 2°55.215 14.1418 0.147902 0.834907 -1.766697
2008-03-28 07:46:16 51°14.292 2°55.201 14.1425 0.147902 0.834907 -1.731873
2008-03-28 07:46:21 51°14.3 2°55.183 14.1426 0.147902 0.834907 -1.731873
2008-03-28 07:46:25 51°14.307 2°55.168 14.1429 0.147902 0.834907 -1.766697
2008-03-28 07:46:30 51°14.316 2°55.149 14.1432 0.147902 0.834892 -1.766697
2008-03-28 07:46:36 51°14.327 2°55.126 14.1437 0.147902 0.834877 -1.766697
2008-03-28 07:46:40 51°14.334 2°55.11 14.1444 0.147902 0.834892 -1.731873
2008-03-28 07:46:45 51°14.343 2°55.089 14.1446 0.147902 0.834892 -1.731873
2008-03-28 07:46:51 51°14.354 2°55.064 14.1449 0.147902 0.834892 -1.731873
2008-03-28 07:46:56 51°14.363 2°55.042 14.145 0.147902 0.834892 -1.731873
2008-03-28 07:47:00 51°14.37 2°55.024 14.1453 0.147902 0.834892 -1.766697
2008-03-28 07:47:05 51°14.38 2°55.001 14.1462 0.147902 0.834892 -1.731873
2008-03-28 07:47:10 51°14.389 2°54.978 14.1463 0.147902 0.834907 -1.766697
2008-03-28 07:47:15 51°14.398 2°54.954 14.1466 0.147902 0.834892 -1.766697
2008-03-28 07:47:20 51°14.407 2°54.931 14.1472 0.147902 0.834892 -1.766697
2008-03-28 07:47:24 51°14.415 2°54.912 14.1476 0.147902 0.834907 -1.766697
2008-03-28 07:47:29 51°14.423 2°54.888 14.1483 0.147902 0.834907 -1.731873
2008-03-28 07:47:34 51°14.431 2°54.863 14.1485 0.147902 0.834937 -1.731873
2008-03-28 07:47:39 51°14.437 2°54.836 14.1487 0.147902 0.834937 -1.731873
2008-03-28 07:47:44 51°14.442 2°54.809 14.1487 0.147902 0.834952 -1.731873
2008-03-28 07:47:48 51°14.445 2°54.786 14.1494 0.147902 0.834952 -1.731873
2008-03-28 07:47:53 51°14.45 2°54.759 14.1499 0.147902 0.834937 -1.766697
2008-03-28 07:47:58 51°14.454 2°54.731 14.1504 0.147902 0.834937 -1.766697
2008-03-28 07:48:04 51°14.458 2°54.697 14.1507 0.147902 0.834937 -1.731873
2008-03-28 07:48:08 51°14.46 2°54.674 14.1512 0.147902 0.834952 -1.731873
2008-03-28 07:48:13 51°14.461 2°54.645 14.1515 0.147902 0.834952 -1.731873
2008-03-28 07:48:19 51°14.462 2°54.61 14.1518 0.147902 0.834952 -1.731873
2008-03-28 07:48:24 51°14.462 2°54.58 14.1519 0.147902 0.834967 -1.766697
2008-03-28 07:48:28 51°14.462 2°54.557 14.1526 0.147902 0.834967 -1.766697
2008-03-28 07:48:34 51°14.46 2°54.521 14.1526 0.147902 0.834967 -1.731873
2008-03-28 07:48:38 51°14.459 2°54.498 14.153 0.147902 0.834967 -1.731873
2008-03-28 07:48:44 51°14.457 2°54.463 14.1538 0.147902 0.834982 -1.731873
2008-03-28 07:48:48 51°14.455 2°54.44 14.1541 0.147902 0.834982 -1.731873
2008-03-28 07:48:54 51°14.45 2°54.405 14.1543 0.147902 0.834982 -1.731873
2008-03-28 07:48:58 51°14.447 2°54.382 14.1545 0.147902 0.834982 -1.766697
2008-03-28 07:49:04 51°14.442 2°54.347 14.1552 0.147902 0.834982 -1.766697
2008-03-28 07:49:08 51°14.439 2°54.324 14.1551 0.147902 0.834982 -1.731873
2008-03-28 07:49:13 51°14.433 2°54.297 14.156 0.147902 0.834997 -1.731873
2008-03-28 07:49:19 51°14.426 2°54.263 14.1559 0.147902 0.834997 -1.731873
2008-03-28 07:49:24 51°14.42 2°54.236 14.1564 0.147902 0.834997 -1.731873
2008-03-28 07:49:28 51°14.416 2°54.214 14.1565 0.147902 0.835012 -1.731873
2008-03-28 07:49:34 51°14.408 2°54.181 14.1571 0.147902 0.834997 -1.731873
2008-03-28 07:49:38 51°14.403 2°54.159 14.157 0.147902 0.835012 -1.766697
2008-03-28 07:49:44 51°14.395 2°54.126 14.1574 0.147902 0.835012 -1.766697
2008-03-28 07:49:48 51°14.39 2°54.104 14.1576 0.147902 0.835012 -1.766697
2008-03-28 07:49:53 51°14.383 2°54.077 14.1577 0.147902 0.835012 -1.731873
2008-03-28 07:49:58 51°14.377 2°54.049 14.158 0.147902 0.835012 -1.731873
2008-03-28 07:50:04 51°14.369 2°54.017 14.1581 0.147902 0.835027 -1.731873
2008-03-28 07:50:09 51°14.363 2°53.989 14.1586 0.147902 0.835027 -1.766697
2008-03-28 07:50:13 51°14.358 2°53.967 14.1589 0.147902 0.835043 -1.731873
2008-03-28 07:50:18 51°14.352 2°53.94 14.159 0.147902 0.835043 -1.731873
2008-03-28 07:50:24 51°14.345 2°53.906 14.1591 0.147902 0.835043 -1.731873
2008-03-28 07:50:28 51°14.341 2°53.884 14.16 0.147902 0.835058 -1.766697
2008-03-28 07:50:33 51°14.335 2°53.856 14.1599 0.147902 0.835088 -1.731873
2008-03-28 07:50:39 51°14.328 2°53.823 14.1603 0.147902 0.835088 -1.766697
2008-03-28 07:50:44 51°14.322 2°53.796 14.1605 0.147902 0.835103 -1.731873
2008-03-28 07:50:48 51°14.316 2°53.774 14.1605 0.147902 0.835103 -1.731873
2008-03-28 07:50:54 51°14.309 2°53.742 14.1605 0.147902 0.835103 -1.766697
2008-03-28 07:50:59 51°14.302 2°53.715 14.1611 0.147902 0.835103 -1.731873
2008-03-28 07:51:04 51°14.296 2°53.687 14.1612 0.147902 0.835118 -1.731873
2008-03-28 07:51:08 51°14.29 2°53.665 14.1614 0.147902 0.835118 -1.766697
2008-03-28 07:51:14 51°14.283 2°53.632 14.162 0.147902 0.835118 -1.731873
2008-03-28 07:51:19 51°14.277 2°53.605 14.1626 0.147902 0.835118 -1.731873
2008-03-28 07:51:24 51°14.271 2°53.577 14.1623 0.147902 0.835148 -1.731873
2008-03-28 07:51:28 51°14.266 2°53.556 14.1629 0.147902 0.835148 -1.766697
2008-03-28 07:51:33 51°14.26 2°53.528 14.1629 0.147902 0.835163 -1.731873
2008-03-28 07:51:38 51°14.254 2°53.501 14.1635 0.147902 0.835193 -1.731873
2008-03-28 07:51:44 51°14.246 2°53.468 14.1637 0.147902 0.835193 -1.731873
2008-03-28 07:51:48 51°14.241 2°53.446 14.1636 0.147902 0.835193 -1.731873
2008-03-28 07:51:53 51°14.234 2°53.419 14.1638 0.147902 0.835193 -1.766697
2008-03-28 07:51:59 51°14.227 2°53.386 14.165 0.147902 0.835208 -1.731873
2008-03-28 07:52:04 51°14.22 2°53.359 14.1645 0.147902 0.835224 -1.731873
2008-03-28 07:52:08 51°14.215 2°53.337 14.1654 0.147902 0.835224 -1.766697
2008-03-28 07:52:13 51°14.209 2°53.31 14.1654 0.147902 0.835239 -1.731873
2008-03-28 07:52:18 51°14.202 2°53.283 14.1655 0.147902 0.835239 -1.731873
2008-03-28 07:52:24 51°14.194 2°53.25 14.1654 0.147902 0.835254 -1.766697
2008-03-28 07:52:28 51°14.189 2°53.228 14.1663 0.147902 0.835239 -1.731873
2008-03-28 07:52:33 51°14.184 2°53.2 14.1664 0.147902 0.835284 -1.731873
2008-03-28 07:52:38 51°14.177 2°53.173 14.1666 0.147902 0.835269 -1.766697
2008-03-28 07:52:44 51°14.17 2°53.14 14.167 0.147902 0.835284 -1.766697
2008-03-28 07:52:48 51°14.165 2°53.117 14.1667 0.147902 0.835284 -1.766697
2008-03-28 07:52:53 51°14.16 2°53.089 14.1672 0.147902 0.835284 -1.766697
2008-03-28 07:52:59 51°14.153 2°53.056 14.1678 0.147902 0.835314 -1.731873
2008-03-28 07:53:04 51°14.147 2°53.028 14.1678 0.147902 0.835329 -1.766697
2008-03-28 07:53:08 51°14.142 2°53.006 14.1685 0.147902 0.835344 -1.731873
2008-03-28 07:53:13 51°14.136 2°52.979 14.1684 0.147902 0.835359 -1.731873
2008-03-28 07:53:19 51°14.127 2°52.947 14.1682 0.147902 0.835359 -1.731873
2008-03-28 07:53:24 51°14.12 2°52.92 14.1691 0.147902 0.835359 -1.766697
2008-03-28 07:53:28 51°14.114 2°52.899 14.1686 0.147902 0.83539 -1.731873
2008-03-28 07:53:34 51°14.105 2°52.868 14.1694 0.147902 0.835374 -1.731873
2008-03-28 07:53:39 51°14.097 2°52.841 14.1697 0.147902 0.83539 -1.731873
2008-03-28 07:53:44 51°14.09 2°52.815 14.17 0.147902 0.835405 -1.731873
2008-03-28 07:53:48 51°14.084 2°52.794 14.1703 0.147902 0.835405 -1.731873
2008-03-28 07:53:53 51°14.076 2°52.767 14.1699 0.147799 0.834811 -1.731873
2008-03-28 07:53:59 51°14.067 2°52.736 14.1707 0.147902 0.835435 -1.766697
2008-03-28 07:54:04 51°14.059 2°52.71 14.1708 0.147799 0.834841 -1.731873
2008-03-28 07:54:08 51°14.053 2°52.689 14.1709 0.147799 0.834856 -1.731873
2008-03-28 07:54:13 51°14.046 2°52.662 14.1714 0.147799 0.834856 -1.731873
2008-03-28 07:54:18 51°14.038 2°52.636 14.1711 0.147799 0.834856 -1.731873
2008-03-28 07:54:24 51°14.028 2°52.606 14.1714 0.147799 0.834886 -1.731873
2008-03-28 07:54:28 51°14.022 2°52.585 14.1724 0.147799 0.834886 -1.766697
2008-03-28 07:54:34 51°14.012 2°52.554 14.1718 0.147799 0.834917 -1.731873
2008-03-28 07:54:38 51°14.005 2°52.534 14.1727 0.147799 0.834917 -1.731873
2008-03-28 07:54:44 51°13.995 2°52.503 14.1723 0.147799 0.834947 -1.731873
2008-03-28 07:54:49 51°13.986 2°52.479 14.1729 0.147799 0.834947 -1.731873
2008-03-28 07:54:54 51°13.978 2°52.453 14.1732 0.147799 0.834947 -1.766697
2008-03-28 07:54:58 51°13.97 2°52.433 14.1732 0.147799 0.834962 -1.731873
2008-03-28 07:55:04 51°13.96 2°52.404 14.1737 0.147799 0.834977 -1.731873
2008-03-28 07:55:08 51°13.953 2°52.383 14.1735 0.147799 0.834992 -1.731873
2008-03-28 07:55:14 51°13.942 2°52.353 14.1742 0.147799 0.835007 -1.731873
2008-03-28 07:55:19 51°13.933 2°52.328 14.1742 0.147799 0.835007 -1.731873
2008-03-28 07:55:24 51°13.924 2°52.303 14.1744 0.147799 0.835007 -1.731873
2008-03-28 07:55:28 51°13.917 2°52.283 14.1747 0.147799 0.835022 -1.731873
2008-03-28 07:55:33 51°13.908 2°52.259 14.175 0.147799 0.835068 -1.731873
2008-03-28 07:55:39 51°13.898 2°52.233 14.1751 0.147799 0.835083 -1.766697
2008-03-28 07:55:44 51°13.889 2°52.213 14.175 0.147799 0.835113 -1.731873
2008-03-28 07:55:48 51°13.883 2°52.2 14.1756 0.147799 0.835113 -1.731873
2008-03-28 07:55:53 51°13.875 2°52.184 14.1754 0.147799 0.835113 -1.731873
2008-03-28 07:55:58 51°13.867 2°52.17 14.1759 0.147799 0.835128 -1.731873
2008-03-28 07:56:04 51°13.859 2°52.155 14.176 0.147799 0.835143 -1.731873
2008-03-28 07:56:08 51°13.854 2°52.146 14.1762 0.147799 0.835158 -1.731873
2008-03-28 07:56:13 51°13.848 2°52.136 14.1762 0.147799 0.835173 -1.731873
2008-03-28 07:56:19 51°13.84 2°52.124 14.1768 0.147799 0.835173 -1.731873
2008-03-28 07:56:24 51°13.835 2°52.116 14.1768 0.147799 0.835188 -1.731873
2008-03-28 07:56:28 51°13.831 2°52.109 14.1773 0.147799 0.835188 -1.731873
2008-03-28 07:56:33 51°13.826 2°52.101 14.1774 0.147799 0.835203 -1.731873
2008-03-28 07:56:39 51°13.82 2°52.093 14.1775 0.147799 0.835218 -1.766697
2008-03-28 07:56:44 51°13.815 2°52.086 14.1776 0.147799 0.835218 -1.731873
2008-03-28 07:56:48 51°13.812 2°52.082 14.1778 0.147799 0.835218 -1.731873
2008-03-28 07:56:54 51°13.807 2°52.074 14.1783 0.147799 0.835234 -1.766697
2008-03-28 07:56:58 51°13.804 2°52.07 14.1784 0.147799 0.835249 -1.731873
2008-03-28 07:57:04 51°13.8 2°52.063 14.1785 0.147799 0.835249 -1.766697
2008-03-28 07:57:08 51°13.797 2°52.059 14.1786 0.147799 0.835264 -1.766697
2008-03-28 07:57:14 51°13.792 2°52.052 14.1788 0.147799 0.835279 -1.731873
2008-03-28 07:57:19 51°13.789 2°52.046 14.1793 0.147799 0.835279 -1.731873
2008-03-28 07:57:24 51°13.785 2°52.04 14.1794 0.147799 0.835294 -1.766697
2008-03-28 07:57:29 51°13.782 2°52.035 14.1794 0.147696 0.8347 -1.731873
2008-03-28 07:57:34 51°13.779 2°52.029 14.1801 0.147799 0.835324 -1.766697
2008-03-28 07:57:39 51°13.776 2°52.023 14.1799 0.147696 0.834745 -1.731873
2008-03-28 07:57:44 51°13.773 2°52.017 14.1805 0.147696 0.83476 -1.731873
2008-03-28 07:57:48 51°13.77 2°52.013 14.1803 0.147696 0.83476 -1.731873
2008-03-28 07:57:54 51°13.767 2°52.006 14.181 0.147696 0.834776 -1.766697
2008-03-28 07:57:59 51°13.764 2°52 14.1809 0.147696 0.834791 -1.731873
2008-03-28 07:58:04 51°13.761 2°51.995 14.1816 0.147696 0.834806 -1.766697
2008-03-28 07:58:08 51°13.759 2°51.99 14.1816 0.147696 0.834821 -1.731873
2008-03-28 07:58:14 51°13.756 2°51.983 14.1821 0.147696 0.834836 -1.731873
2008-03-28 07:58:19 51°13.753 2°51.978 14.1822 0.147696 0.834836 -1.731873
2008-03-28 07:58:24 51°13.75 2°51.972 14.1825 0.147696 0.834851 -1.766697
2008-03-28 07:58:28 51°13.749 2°51.968 14.1827 0.147696 0.834866 -1.731873
2008-03-28 07:58:33 51°13.746 2°51.962 14.1832 0.147696 0.834881 -1.766697
2008-03-28 07:58:39 51°13.743 2°51.956 14.1836 0.147696 0.834896 -1.731873
2008-03-28 07:58:44 51°13.741 2°51.95 14.1838 0.147696 0.834911 -1.731873
2008-03-28 07:58:48 51°13.739 2°51.946 14.1841 0.147696 0.834911 -1.731873
2008-03-28 07:58:53 51°13.736 2°51.941 14.1842 0.147696 0.834927 -1.766697
2008-03-28 07:58:58 51°13.734 2°51.935 14.1847 0.147696 0.834942 -1.731873
2008-03-28 07:59:04 51°13.731 2°51.929 14.1847 0.147696 0.834957 -1.731873
2008-03-28 07:59:08 51°13.729 2°51.925 14.1853 0.147696 0.834972 -1.731873
2008-03-28 07:59:14 51°13.726 2°51.919 14.1854 0.147696 0.834987 -1.731873
2008-03-28 07:59:18 51°13.724 2°51.915 14.1859 0.147696 0.834987 -1.731873
2008-03-28 07:59:24 51°13.721 2°51.909 14.186 0.147696 0.835002 -1.731873
2008-03-28 07:59:28 51°13.719 2°51.905 14.1864 0.147696 0.835017 -1.766697
2008-03-28 07:59:33 51°13.717 2°51.9 14.1865 0.147696 0.835032 -1.731873
2008-03-28 07:59:39 51°13.714 2°51.894 14.1873 0.147696 0.835047 -1.766697
2008-03-28 07:59:44 51°13.712 2°51.89 14.1872 0.147696 0.835062 -1.766697
2008-03-28 07:59:48 51°13.71 2°51.885 14.188 0.147696 0.835062 -1.766697
2008-03-28 07:59:53 51°13.707 2°51.88 14.188 0.147696 0.835078 -1.731873
2008-03-28 07:59:59 51°13.704 2°51.874 14.1885 0.147696 0.835093 -1.766697
2008-03-28 08:00:04 51°13.702 2°51.87 14.1889 0.147696 0.835093 -1.731873
2008-03-28 08:00:08 51°13.7 2°51.865 14.1891 0.147696 0.835108 -1.731873
2008-03-28 08:00:14 51°13.697 2°51.859 14.1896 0.147696 0.835123 -1.731873
2008-03-28 08:00:18 51°13.695 2°51.855 14.19 0.147696 0.835123 -1.731873
2008-03-28 08:00:24 51°13.692 2°51.849 14.19 0.147696 0.835153 -1.731873
2008-03-28 08:00:28 51°13.689 2°51.845 14.1906 0.147696 0.835153 -1.731873
2008-03-28 08:00:33 51°13.687 2°51.84 14.1909 0.147696 0.835168 -1.766697
2008-03-28 08:00:39 51°13.684 2°51.833 14.1916 0.147696 0.835183 -1.766697
2008-03-28 08:00:44 51°13.681 2°51.828 14.1916 0.147696 0.835198 -1.731873
2008-03-28 08:00:48 51°13.679 2°51.824 14.1919 0.147696 0.835198 -1.731873
2008-03-28 08:00:53 51°13.676 2°51.819 14.1925 0.147696 0.835214 -1.766697
2008-03-28 08:00:59 51°13.672 2°51.812 14.1925 0.147696 0.835214 -1.731873
2008-03-28 08:01:04 51°13.669 2°51.807 14.193 0.147696 0.835229 -1.731873
2008-03-28 08:01:08 51°13.667 2°51.802 14.1934 0.147593 0.834634 -1.766697
2008-03-28 08:01:14 51°13.663 2°51.795 14.1936 0.147593 0.834649 -1.766697
2008-03-28 08:01:18 51°13.66 2°51.79 14.1941 0.147593 0.834649 -1.766697
2008-03-28 08:01:24 51°13.656 2°51.783 14.1943 0.147593 0.83468 -1.731873
2008-03-28 08:01:29 51°13.653 2°51.777 14.1945 0.147593 0.83468 -1.731873
2008-03-28 08:01:34 51°13.649 2°51.77 14.1947 0.147593 0.83468 -1.766697
2008-03-28 08:01:38 51°13.646 2°51.765 14.1954 0.147593 0.834695 -1.731873
2008-03-28 08:01:44 51°13.642 2°51.757 14.1956 0.147593 0.83471 -1.731873
2008-03-28 08:01:48 51°13.638 2°51.752 14.1963 0.147593 0.83471 -1.731873
2008-03-28 08:01:53 51°13.634 2°51.745 14.196 0.147593 0.834725 -1.731873
2008-03-28 08:01:59 51°13.629 2°51.737 14.1968 0.147593 0.83474 -1.766697
2008-03-28 08:02:04 51°13.625 2°51.731 14.197 0.147593 0.834755 -1.766697
2008-03-28 08:02:08 51°13.622 2°51.726 14.1974 0.147593 0.83477 -1.766697
2008-03-28 08:02:13 51°13.617 2°51.719 14.1977 0.147593 0.834785 -1.731873
2008-03-28 08:02:19 51°13.612 2°51.711 14.198 0.147593 0.834785 -1.731873
2008-03-28 08:02:24 51°13.607 2°51.704 14.1984 0.147593 0.834801 -1.766697
2008-03-28 08:02:28 51°13.604 2°51.699 14.1987 0.147593 0.834816 -1.731873
2008-03-28 08:02:34 51°13.598 2°51.691 14.1991 0.147593 0.834816 -1.731873
2008-03-28 08:02:39 51°13.593 2°51.684 14.1994 0.147593 0.834831 -1.731873
2008-03-28 08:02:44 51°13.589 2°51.678 14.1995 0.147593 0.834846 -1.766697
2008-03-28 08:02:48 51°13.585 2°51.672 14.2002 0.147593 0.834846 -1.766697
2008-03-28 08:02:54 51°13.579 2°51.664 14.2001 0.147593 0.834861 -1.731873
2008-03-28 08:02:59 51°13.574 2°51.657 14.2012 0.147593 0.834861 -1.731873
2008-03-28 08:03:04 51°13.569 2°51.65 14.2008 0.147593 0.834876 -1.731873
2008-03-28 08:03:08 51°13.565 2°51.644 14.2018 0.147593 0.834891 -1.766697
2008-03-28 08:03:13 51°13.56 2°51.637 14.2018 0.147593 0.834906 -1.766697
2008-03-28 08:03:19 51°13.554 2°51.628 14.2025 0.147593 0.834906 -1.766697
2008-03-28 08:03:24 51°13.549 2°51.62 14.2025 0.147593 0.834921 -1.731873
2008-03-28 08:03:28 51°13.545 2°51.614 14.2032 0.147593 0.834921 -1.731873
2008-03-28 08:03:34 51°13.54 2°51.605 14.2035 0.147593 0.834952 -1.731873
2008-03-28 08:03:38 51°13.536 2°51.599 14.204 0.147593 0.834967 -1.731873
2008-03-28 08:03:44 51°13.531 2°51.589 14.204 0.147593 0.834967 -1.766697
2008-03-28 08:03:48 51°13.528 2°51.583 14.2046 0.147593 0.834967 -1.766697
2008-03-28 08:03:54 51°13.524 2°51.573 14.2049 0.147593 0.834982 -1.766697
2008-03-28 08:03:59 51°13.522 2°51.565 14.2053 0.147593 0.834997 -1.731873
2008-03-28 08:04:04 51°13.519 2°51.558 14.2055 0.147593 0.835012 -1.766697
2008-03-28 08:04:09 51°13.516 2°51.551 14.2061 0.147593 0.835027 -1.731873
2008-03-28 08:04:14 51°13.513 2°51.544 14.2064 0.147593 0.835042 -1.731873
2008-03-28 08:04:19 51°13.51 2°51.538 14.2069 0.147593 0.835042 -1.731873
2008-03-28 08:04:24 51°13.508 2°51.531 14.2076 0.147593 0.835058 -1.766697
2008-03-28 08:04:28 51°13.506 2°51.526 14.2079 0.147593 0.835073 -1.731873
2008-03-28 08:04:33 51°13.504 2°51.52 14.2082 0.147593 0.835088 -1.731873
2008-03-28 08:04:39 51°13.502 2°51.513 14.2084 0.147593 0.835088 -1.766697
2008-03-28 08:04:44 51°13.5 2°51.507 14.2092 0.14749 0.834493 -1.766697
2008-03-28 08:04:48 51°13.499 2°51.502 14.2093 0.14749 0.834493 -1.766697
2008-03-28 08:04:53 51°13.498 2°51.497 14.2098 0.147593 0.835118 -1.731873
2008-03-28 08:04:59 51°13.496 2°51.49 14.2098 0.14749 0.834523 -1.731873
2008-03-28 08:05:04 51°13.495 2°51.485 14.2107 0.14749 0.834523 -1.766697
2008-03-28 08:05:08 51°13.494 2°51.481 14.2108 0.14749 0.834554 -1.731873
2008-03-28 08:05:13 51°13.492 2°51.477 14.2112 0.14749 0.834554 -1.731873
2008-03-28 08:05:19 51°13.491 2°51.471 14.2121 0.14749 0.834554 -1.731873
2008-03-28 08:05:24 51°13.49 2°51.467 14.2123 0.14749 0.834569 -1.766697
2008-03-28 08:05:28 51°13.489 2°51.463 14.2129 0.14749 0.834569 -1.731873
2008-03-28 08:05:33 51°13.489 2°51.459 14.2131 0.14749 0.834599 -1.731873
2008-03-28 08:05:39 51°13.488 2°51.454 14.2133 0.14749 0.834599 -1.731873
2008-03-28 08:05:44 51°13.487 2°51.45 14.2141 0.14749 0.834599 -1.731873
2008-03-28 08:05:48 51°13.486 2°51.447 14.2143 0.14749 0.834599 -1.731873
2008-03-28 08:05:54 51°13.486 2°51.443 14.2149 0.14749 0.834614 -1.731873
2008-03-28 08:05:58 51°13.485 2°51.44 14.2151 0.14749 0.834629 -1.766697
2008-03-28 08:06:04 51°13.484 2°51.435 14.2155 0.14749 0.834644 -1.766697
2008-03-28 08:06:08 51°13.484 2°51.432 14.2163 0.14749 0.834659 -1.731873
2008-03-28 08:06:13 51°13.484 2°51.429 14.2165 0.14749 0.834659 -1.731873
2008-03-28 08:06:19 51°13.483 2°51.424 14.217 0.14749 0.834659 -1.731873
2008-03-28 08:06:24 51°13.483 2°51.421 14.2176 0.14749 0.834675 -1.766697
2008-03-28 08:06:28 51°13.483 2°51.418 14.2174 0.14749 0.83469 -1.731873
2008-03-28 08:06:33 51°13.483 2°51.414 14.2181 0.14749 0.834705 -1.731873
2008-03-28 08:06:39 51°13.482 2°51.41 14.2185 0.14749 0.834705 -1.731873
2008-03-28 08:06:44 51°13.482 2°51.407 14.2192 0.14749 0.83472 -1.766697
2008-03-28 08:06:48 51°13.482 2°51.404 14.2195 0.14749 0.83472 -1.766697
2008-03-28 08:06:54 51°13.482 2°51.4 14.2199 0.14749 0.834735 -1.766697
2008-03-28 08:06:58 51°13.482 2°51.398 14.2205 0.14749 0.834735 -1.766697
2008-03-28 08:07:04 51°13.482 2°51.394 14.2209 0.14749 0.83475 -1.731873
2008-03-28 08:07:08 51°13.482 2°51.392 14.2216 0.14749 0.834765 -1.731873
2008-03-28 08:07:13 51°13.482 2°51.388 14.2215 0.14749 0.83478 -1.731873
2008-03-28 08:07:19 51°13.482 2°51.385 14.2221 0.14749 0.83478 -1.731873
2008-03-28 08:07:24 51°13.482 2°51.382 14.2225 0.14749 0.834796 -1.731873
2008-03-28 08:07:28 51°13.482 2°51.379 14.2229 0.14749 0.834811 -1.731873
2008-03-28 08:07:33 51°13.483 2°51.376 14.2235 0.14749 0.834826 -1.731873
2008-03-28 08:07:39 51°13.483 2°51.373 14.2241 0.14749 0.834841 -1.731873
2008-03-28 08:07:44 51°13.483 2°51.37 14.224 0.14749 0.834841 -1.731873
2008-03-28 08:07:48 51°13.483 2°51.368 14.2245 0.14749 0.834841 -1.731873
2008-03-28 08:07:54 51°13.483 2°51.364 14.2251 0.14749 0.834856 -1.731873
2008-03-28 08:07:58 51°13.483 2°51.362 14.2257 0.14749 0.834871 -1.731873
2008-03-28 08:08:04 51°13.484 2°51.358 14.226 0.14749 0.834871 -1.731873
2008-03-28 08:08:09 51°13.484 2°51.355 14.226 0.14749 0.834901 -1.731873
2008-03-28 08:08:14 51°13.484 2°51.353 14.2268 0.14749 0.834917 -1.731873
2008-03-28 08:08:18 51°13.484 2°51.35 14.2274 0.14749 0.834917 -1.731873
2008-03-28 08:08:24 51°13.484 2°51.347 14.2275 0.14749 0.834932 -1.731873
2008-03-28 08:08:28 51°13.485 2°51.345 14.2278 0.14749 0.834932 -1.731873
2008-03-28 08:08:33 51°13.485 2°51.342 14.2285 0.14749 0.834947 -1.731873
2008-03-28 08:08:39 51°13.485 2°51.339 14.2285 0.147387 0.834352 -1.731873
2008-03-28 08:08:44 51°13.485 2°51.336 14.229 0.14749 0.834962 -1.766697
2008-03-28 08:08:48 51°13.485 2°51.334 14.2295 0.14749 0.834962 -1.766697
2008-03-28 08:08:53 51°13.485 2°51.331 14.2299 0.14749 0.834977 -1.731873
2008-03-28 08:08:59 51°13.486 2°51.328 14.2305 0.147387 0.834382 -1.731873
2008-03-28 08:09:04 51°13.486 2°51.325 14.231 0.147387 0.834397 -1.731873
2008-03-28 08:09:08 51°13.486 2°51.323 14.2309 0.147387 0.834412 -1.731873
2008-03-28 08:09:14 51°13.486 2°51.32 14.2318 0.147387 0.834412 -1.731873
2008-03-28 08:09:18 51°13.487 2°51.318 14.2323 0.147387 0.834412 -1.731873
2008-03-28 08:09:24 51°13.487 2°51.315 14.2325 0.147387 0.834427 -1.731873
2008-03-28 08:09:28 51°13.487 2°51.312 14.2329 0.147387 0.834458 -1.731873
2008-03-28 08:09:33 51°13.487 2°51.31 14.2332 0.147387 0.834458 -1.731873
2008-03-28 08:09:39 51°13.487 2°51.307 14.2339 0.147387 0.834473 -1.766697
2008-03-28 08:09:44 51°13.488 2°51.304 14.2339 0.147387 0.834488 -1.766697
2008-03-28 08:09:48 51°13.488 2°51.302 14.2346 0.147387 0.834488 -1.766697
2008-03-28 08:09:53 51°13.488 2°51.3 14.2352 0.147387 0.834518 -1.731873
2008-03-28 08:09:59 51°13.488 2°51.297 14.2355 0.147387 0.834518 -1.731873
2008-03-28 08:10:04 51°13.489 2°51.294 14.2356 0.147387 0.834533 -1.731873
2008-03-28 08:10:08 51°13.489 2°51.292 14.2365 0.147387 0.834548 -1.731873
2008-03-28 08:10:14 51°13.489 2°51.289 14.2368 0.147387 0.834564 -1.731873
2008-03-28 08:10:18 51°13.489 2°51.287 14.2372 0.147387 0.834564 -1.731873
2008-03-28 08:10:24 51°13.49 2°51.284 14.2377 0.147387 0.834564 -1.731873
2008-03-28 08:10:28 51°13.49 2°51.282 14.2383 0.147387 0.834579 -1.766697
2008-03-28 08:10:34 51°13.49 2°51.279 14.2386 0.147387 0.834594 -1.766697
2008-03-28 08:10:39 51°13.491 2°51.277 14.239 0.147387 0.834609 -1.731873
2008-03-28 08:10:44 51°13.491 2°51.274 14.2394 0.147387 0.834624 -1.731873
2008-03-28 08:10:48 51°13.491 2°51.272 14.2395 0.147387 0.834624 -1.731873
2008-03-28 08:10:53 51°13.492 2°51.27 14.2404 0.147387 0.834639 -1.731873
2008-03-28 08:10:59 51°13.492 2°51.267 14.2405 0.147387 0.834639 -1.731873
2008-03-28 08:11:04 51°13.492 2°51.264 14.2411 0.147387 0.834654 -1.731873
2008-03-28 08:11:08 51°13.493 2°51.262 14.2415 0.147387 0.834685 -1.766697
2008-03-28 08:11:13 51°13.493 2°51.26 14.2417 0.147387 0.834685 -1.731873
2008-03-28 08:11:19 51°13.494 2°51.257 14.2426 0.147387 0.834685 -1.731873
2008-03-28 08:11:24 51°13.494 2°51.254 14.2426 0.147387 0.8347 -1.731873
2008-03-28 08:11:28 51°13.494 2°51.252 14.2432 0.147387 0.834715 -1.731873
2008-03-28 08:11:34 51°13.494 2°51.248 14.2433 0.147387 0.834745 -1.731873
2008-03-28 08:11:39 51°13.495 2°51.245 14.2438 0.147387 0.834745 -1.731873
2008-03-28 08:11:44 51°13.495 2°51.241 14.2442 0.147387 0.83476 -1.766697
2008-03-28 08:11:48 51°13.495 2°51.238 14.2446 0.147387 0.83476 -1.766697
2008-03-28 08:11:54 51°13.495 2°51.233 14.2452 0.147387 0.834775 -1.731873
2008-03-28 08:11:59 51°13.495 2°51.229 14.2454 0.147387 0.834791 -1.731873
2008-03-28 08:12:04 51°13.494 2°51.224 14.2458 0.147387 0.834806 -1.766697
2008-03-28 08:12:08 51°13.494 2°51.221 14.2463 0.147387 0.834836 -1.766697
2008-03-28 08:12:13 51°13.493 2°51.216 14.247 0.147387 0.834851 -1.766697
2008-03-28 08:12:18 51°13.492 2°51.211 14.2473 0.147387 0.834851 -1.766697
2008-03-28 08:12:24 51°13.491 2°51.205 14.2478 0.147387 0.834866 -1.731873
2008-03-28 08:12:28 51°13.49 2°51.201 14.2482 0.147387 0.834897 -1.731873
2008-03-28 08:12:34 51°13.488 2°51.195 14.2486 0.147387 0.834912 -1.731873
2008-03-28 08:12:38 51°13.486 2°51.19 14.2491 0.147387 0.834912 -1.766697
2008-03-28 08:12:44 51°13.484 2°51.183 14.2496 0.147387 0.834942 -1.731873
2008-03-28 08:12:48 51°13.481 2°51.177 14.2501 0.147387 0.834942 -1.731873